GFSGBSN_250_spd_099.txt.gz
Wind_Speed
92 86 89 87 89 87 86 88 85 87 88 88 88 89 85 85 84 83 84 85 85 83 80 80 76 74 73 73 73 66 70 66 64 66 69 68 67 68 70 67 69 68 63 64 65 65 63
99 95 92 88 90 90 89 91 86 85 87 88 85 87 84 84 83 84 82 84 85 86 83 80 75 72 73 76 72 71 72 73 70 70 72 72 71 72 71 71 74 73 67 65 66 67 67
103 100 99 94 96 93 93 90 89 90 87 89 88 91 88 85 87 86 84 82 81 79 80 76 74 72 73 79 75 76 77 77 77 76 75 76 76 75 75 73 76 74 72 66 69 72 70
101 99 98 98 95 95 94 95 94 94 95 92 97 96 97 92 88 90 87 87 87 85 83 78 77 77 77 77 79 81 82 84 80 80 81 81 82 81 82 79 77 78 76 74 78 80 78
97 101 104 106 102 100 99 102 99 100 98 99 100 101 98 100 92 92 90 89 91 88 86 81 81 81 82 81 80 81 81 86 85 83 86 87 89 89 88 87 86 86 85 87 84 88 87
104 107 109 108 111 109 108 108 105 109 106 105 106 108 103 101 99 97 92 92 92 89 89 88 87 84 83 81 84 83 83 86 87 87 87 89 88 89 92 88 83 88 87 85 84 91 88
116 119 117 116 118 115 115 115 116 117 113 114 111 110 110 107 107 99 96 95 96 92 90 89 86 89 88 87 86 87 86 85 87 89 90 88 88 92 91 89 88 89 91 90 88 93 93
115 116 118 116 117 116 119 120 122 119 121 117 119 116 116 115 114 109 104 99 100 101 93 93 89 87 90 89 91 88 85 85 87 87 89 88 89 96 91 92 93 94 93 91 91 95 93
119 120 120 122 120 118 118 121 124 126 126 125 122 122 124 120 116 113 112 109 106 107 100 98 99 92 94 88 91 92 93 90 88 89 88 89 94 96 93 90 90 91 92 92 91 96 94
124 127 126 124 125 127 128 129 130 128 127 127 124 122 118 125 116 114 110 113 111 106 106 98 102 104 99 94 91 92 93 87 84 85 85 84 88 87 87 89 93 90 97 95 95 98 97
128 129 129 132 133 133 134 131 125 122 118 120 117 123 121 117 112 112 107 107 109 107 108 105 103 100 103 101 96 95 93 93 88 88 88 90 92 93 93 97 98 98 103 106 108 109 110
128 130 128 132 130 131 128 124 122 122 116 120 116 113 121 113 107 105 102 110 105 105 102 102 101 100 101 103 103 98 96 95 95 94 94 95 98 100 101 103 107 109 110 110 111 111 108
129 128 127 118 104 103 99 91 93 99 96 96 95 92 100 103 97 101 105 104 106 103 103 103 102 102 103 104 105 101 99 100 101 101 101 100 103 106 106 110 112 110 110 111 112 111 109
115 106 96 87 81 72 73 74 69 69 73 74 76 78 79 82 84 87 92 100 99 92 98 95 99 104 104 107 106 103 103 100 103 104 104 106 106 109 110 111 109 112 111 112 110 104 103
89 83 79 68 65 65 62 60 60 61 63 62 62 64 68 71 73 73 73 75 81 84 89 90 93 102 106 103 103 99 97 96 98 103 104 106 108 111 111 108 105 105 108 109 103 92 81
78 74 66 58 56 57 57 54 52 54 55 53 54 59 58 59 61 61 61 65 69 73 78 81 86 87 90 92 92 94 97 93 90 91 93 94 97 98 98 102 104 100 94 92 86 75 67
74 69 58 54 52 50 51 49 48 49 47 46 46 48 51 52 50 52 53 57 58 61 65 67 69 72 77 77 75 79 76 76 73 73 77 82 87 86 86 90 89 86 82 80 78 74 64
69 63 52 48 47 46 43 43 45 42 42 39 39 38 42 43 43 45 44 43 45 47 48 51 53 53 55 57 59 60 61 63 65 70 73 75 76 74 76 79 77 78 78 74 65 62 55
64 55 49 44 43 42 40 38 37 37 36 35 32 34 35 34 33 32 33 34 36 36 39 44 46 47 46 49 52 55 60 65 67 70 70 71 71 68 68 70 71 71 70 69 62 50 45
59 50 44 42 40 38 36 34 34 35 34 33 32 30 28 31 32 33 32 32 33 34 37 39 40 43 47 51 57 60 64 62 62 64 65 63 62 59 54 60 58 57 53 55 52 42 41
54 45 40 41 40 35 32 32 33 37 36 35 37 35 36 34 33 32 34 34 30 35 37 38 43 49 53 55 58 60 60 59 60 59 57 53 51 52 53 50 45 42 47 48 39 39 33
49 43 40 40 39 35 31 35 38 40 41 42 37 32 29 28 30 32 33 33 33 36 39 45 49 52 56 58 54 56 56 58 56 51 50 48 49 48 47 42 35 44 46 41 38 33 41
44 42 39 40 37 35 31 37 42 41 39 40 33 29 29 31 31 32 34 36 39 41 47 52 54 56 54 52 54 53 53 53 50 49 46 42 40 41 44 36 42 44 38 38 36 40 42
43 40 39 38 38 38 36 39 41 41 42 41 35 35 34 34 35 36 39 41 42 45 50 49 49 50 51 51 48 50 51 51 47 46 42 41 36 36 39 40 39 36 35 35 38 43 42
42 40 40 39 40 40 39 40 41 42 39 39 39 39 38 37 38 37 39 41 44 43 41 43 47 49 49 47 48 47 46 46 43 41 36 35 36 35 36 36 33 32 30 32 36 43 45
43 41 40 40 41 41 40 39 39 42 44 42 40 37 38 39 38 42 44 41 39 42 46 46 47 46 46 45 42 43 43 39 40 34 32 33 34 33 32 30 28 28 32 34 40 44 47
43 42 40 41 41 41 42 39 39 40 40 41 45 44 45 46 46 37 36 38 41 43 45 46 44 42 39 40 41 39 38 40 38 34 32 30 31 30 29 26 26 29 35 41 47 49 49
43 42 40 41 41 44 42 40 41 39 41 42 41 39 36 35 35 39 41 39 40 42 42 40 37 36 36 39 39 39 37 34 33 31 29 27 27 25 22 21 28 32 36 40 45 49 48
42 40 40 39 41 42 43 41 39 37 37 38 37 35 35 36 39 40 39 40 39 38 38 38 36 32 35 39 37 35 32 29 25 24 23 22 21 19 20 22 29 32 35 35 39 41 46

GFSGBSN_250_spd_102.txt.gz
Wind_Speed
92 87 86 83 88 87 93 92 87 84 86 86 88 89 92 92 90 90 91 89 89 90 90 86 84 80 82 79 82 75 78 79 76 73 70 70 68 68 67 63 66 67 68 68 71 68 64
85 82 82 91 92 97 93 92 95 100 94 96 97 97 96 92 95 93 92 94 88 90 83 83 85 80 81 81 80 81 77 79 77 75 73 72 71 69 69 70 69 69 70 72 72 73 71
84 88 91 95 98 103 106 103 100 99 101 102 98 102 97 95 91 91 95 93 89 88 89 85 85 85 79 86 77 76 77 74 75 70 73 74 75 73 71 74 77 77 76 76 79 79 76
95 96 100 102 102 100 99 100 101 105 99 97 95 100 99 97 99 94 93 95 95 96 95 92 87 87 84 89 82 82 78 79 75 75 75 76 75 76 76 79 80 80 80 80 83 84 85
99 105 104 106 107 106 102 103 103 102 103 99 102 103 105 105 101 104 98 98 96 98 97 96 94 92 87 88 88 85 85 82 78 79 80 79 78 79 80 83 82 82 83 83 85 91 90
104 99 102 107 105 105 98 101 106 103 105 105 107 112 111 110 114 109 107 109 106 103 103 101 98 95 91 87 88 91 90 87 85 83 82 83 81 79 84 85 83 85 85 86 86 91 89
110 99 99 105 103 105 107 110 111 110 114 115 112 113 117 114 118 116 118 117 110 113 108 104 104 100 95 90 89 88 88 88 88 86 85 84 82 84 89 86 85 84 86 89 91 92 88
111 109 104 105 109 108 111 112 111 114 118 117 117 115 116 118 118 120 120 120 118 118 113 113 113 104 99 98 92 90 88 90 91 91 91 89 84 88 88 86 87 85 85 88 90 94 89
117 113 112 110 111 113 116 120 124 125 125 119 120 121 123 122 124 125 124 125 116 117 116 110 111 108 109 104 99 100 96 95 93 92 93 91 91 90 88 89 88 89 89 90 90 95 95
122 119 120 118 120 122 124 124 125 124 124 126 128 128 129 131 131 131 128 125 122 117 116 103 107 108 107 105 93 104 102 101 96 96 94 93 95 92 92 89 93 92 95 93 91 92 91
125 125 124 124 126 128 129 129 126 125 128 132 130 132 130 129 129 130 128 127 122 116 110 103 88 89 98 102 100 104 103 102 101 101 98 97 97 96 94 92 93 90 95 97 97 99 95
135 136 130 127 129 130 131 131 128 127 128 132 128 129 130 129 126 127 124 114 114 111 105 103 94 86 91 94 93 97 100 100 103 101 99 98 99 100 98 97 96 97 97 100 102 103 99
134 130 133 125 128 131 132 129 125 123 123 121 123 119 117 107 103 99 97 102 100 88 93 93 90 87 87 90 90 89 92 93 96 101 99 97 98 98 98 98 100 103 106 107 106 104 101
126 124 131 130 129 128 126 122 118 110 100 93 86 84 83 82 79 77 80 82 78 78 82 82 81 80 79 81 82 86 87 89 96 97 95 94 96 96 97 101 104 104 105 105 104 103 103
120 118 121 121 115 116 105 93 83 77 77 76 73 68 67 65 67 68 67 65 65 67 69 67 68 70 73 71 72 78 82 87 88 87 89 91 93 95 98 99 100 100 99 98 101 101 101
103 101 98 99 96 85 75 70 65 66 67 64 61 59 57 59 56 56 55 53 56 57 55 56 58 58 61 65 69 71 80 80 80 84 85 87 90 92 91 93 93 92 93 97 99 98 94
89 84 82 83 78 71 66 60 55 59 58 53 55 53 51 50 47 45 44 46 47 47 44 45 47 50 53 56 60 63 66 68 69 72 75 79 81 78 80 83 83 86 87 88 88 87 77
82 79 77 76 70 63 59 54 49 53 50 50 52 48 43 39 36 34 36 38 39 36 36 35 38 40 42 45 49 51 53 50 53 57 59 62 62 64 71 76 80 82 85 83 79 78 76
74 71 69 69 60 55 52 48 46 47 47 43 42 40 38 32 26 28 29 33 31 31 29 32 34 35 36 39 39 39 41 43 46 51 52 57 61 68 72 73 78 79 80 78 79 74 67
64 63 63 61 53 48 46 45 43 41 38 40 34 35 31 25 24 27 27 26 23 23 24 27 28 31 34 34 36 39 42 45 47 52 57 61 65 69 71 74 74 74 75 74 69 65 62
56 56 55 51 48 43 42 42 40 36 37 34 29 32 30 24 27 27 24 23 21 22 22 22 26 30 32 35 39 42 43 46 52 56 61 63 67 70 69 68 64 60 59 69 60 51 52
48 51 51 46 41 41 40 38 37 36 36 33 33 32 29 28 31 29 27 27 25 26 22 24 28 32 35 37 39 43 48 52 55 60 63 64 64 61 55 58 53 46 59 56 50 43 46
44 46 46 42 40 40 37 35 36 36 35 34 34 33 30 29 32 30 29 27 30 33 31 32 33 34 36 39 43 49 55 58 61 63 61 57 54 47 46 51 45 49 44 43 41 36 38
43 44 42 41 39 37 34 29 32 35 38 36 32 28 31 30 32 30 29 31 32 32 31 29 31 36 41 46 53 56 58 58 59 57 52 49 43 38 42 43 44 41 40 39 36 34 34
43 42 41 39 38 36 34 33 33 36 37 37 35 33 35 32 31 30 29 31 31 27 30 34 36 38 47 47 46 48 48 50 50 48 45 41 39 39 40 39 36 34 34 33 33 31 30
43 41 40 38 38 36 35 34 35 38 39 38 36 37 38 34 32 33 32 29 29 31 36 39 42 43 42 42 45 47 45 41 39 39 40 41 40 37 35 32 30 31 29 30 32 33 36
42 40 39 39 39 37 37 35 35 38 39 39 39 37 38 35 33 28 28 30 34 37 39 38 36 36 42 46 44 39 38 37 37 36 37 36 33 32 28 27 27 27 28 28 32 36 38
41 40 40 39 38 37 38 36 34 35 33 37 39 38 38 36 35 35 35 37 42 36 35 32 36 42 45 43 39 36 36 32 31 33 34 32 30 26 24 24 24 24 26 30 34 37 37
41 40 39 39 38 39 38 36 34 34 33 33 33 35 36 39 38 36 34 32 31 33 34 38 40 39 39 38 35 33 33 30 32 32 31 26 22 21 20 21 20 21 24 29 34 35 35

GFSGBSN_250_spd_105.txt.gz
Wind_Speed
96 91 83 85 87 87 92 93 91 84 76 77 85 86 92 94 90 90 92 92 90 90 90 91 88 91 89 86 88 85 79 81 79 79 76 77 73 70 69 68 66 62 63 63 64 64 65
95 93 95 95 93 95 94 92 87 87 79 79 85 92 94 98 97 93 95 97 96 93 90 90 89 88 88 88 88 83 82 78 76 78 74 75 74 77 70 69 66 65 64 66 64 65 66
104 106 99 103 101 102 102 97 88 89 89 88 91 96 99 99 100 98 99 94 95 92 92 91 90 88 86 93 87 87 85 84 85 79 77 77 75 75 72 69 68 65 66 67 70 71 69
106 108 105 105 104 103 100 98 96 92 92 95 97 101 102 104 100 95 100 100 97 96 93 92 93 88 85 89 88 90 90 89 90 85 81 81 78 79 76 73 73 71 68 72 72 74 74
108 107 109 107 101 99 99 96 93 94 99 102 104 104 106 106 105 100 99 103 101 104 98 95 97 98 92 95 96 94 95 93 92 91 88 87 82 81 81 81 80 76 75 73 74 78 81
108 108 108 103 99 100 102 105 101 98 95 97 105 101 105 106 108 109 106 109 109 110 108 98 100 102 101 99 100 100 99 101 92 93 91 91 88 84 84 87 84 81 79 80 78 82 80
108 105 106 106 105 107 108 111 106 103 100 100 103 105 106 107 107 107 110 109 113 117 110 109 107 109 106 105 109 107 105 100 101 97 95 92 88 85 87 88 87 85 83 82 82 82 77
104 106 104 102 103 102 101 105 107 107 111 110 108 109 107 109 111 112 112 114 118 120 121 119 121 111 109 110 108 108 107 106 103 105 102 97 92 90 91 88 87 88 86 84 83 85 81
112 115 111 111 109 107 111 110 112 113 116 119 118 115 113 113 113 115 118 123 124 127 129 123 125 117 117 115 107 104 106 105 106 106 106 102 96 94 94 94 91 88 87 86 86 88 87
118 118 120 121 121 117 118 120 117 121 123 128 130 124 119 120 118 119 123 129 131 132 137 126 123 119 118 114 104 104 102 103 103 102 102 101 98 99 98 96 98 95 93 90 91 90 89
133 133 131 133 133 129 127 127 129 128 128 125 126 124 124 124 126 128 126 131 132 132 138 129 125 121 115 113 110 105 103 98 97 103 99 98 99 100 100 100 101 100 99 98 94 92 91
144 139 137 138 138 136 135 134 133 130 130 131 128 129 132 130 132 132 130 131 127 135 131 122 119 115 105 101 99 96 92 88 89 88 85 86 92 96 102 102 101 101 101 101 100 95 90
137 135 136 137 136 137 133 132 133 131 131 130 131 130 130 134 129 129 125 125 128 122 119 113 99 90 83 84 81 79 79 80 81 80 80 84 87 87 91 95 102 104 101 99 99 97 93
135 136 132 133 135 134 132 131 134 131 129 128 126 128 130 124 119 118 117 115 106 96 91 83 78 74 74 72 68 68 67 68 72 74 76 79 81 84 86 90 91 93 95 96 94 97 98
128 124 120 121 127 133 127 126 125 121 118 119 122 119 116 112 103 94 87 78 78 79 76 70 66 62 60 56 60 59 60 61 63 67 71 75 79 80 80 83 85 86 87 90 94 93 93
110 108 105 102 103 109 105 101 104 103 102 96 95 90 88 81 75 73 70 66 69 65 63 60 56 53 52 50 48 51 54 55 56 58 62 68 72 74 77 80 80 82 85 86 89 90 90
102 101 100 96 96 98 98 88 88 84 80 77 74 71 68 65 62 62 60 56 54 50 49 49 49 47 44 41 42 42 44 47 49 53 58 61 63 65 69 71 73 76 80 82 85 86 86
91 90 87 85 83 79 78 74 70 66 65 64 62 63 61 52 51 48 46 43 37 37 39 41 40 39 37 33 32 33 34 37 41 46 49 50 52 56 59 63 69 71 73 75 77 77 78
84 83 82 78 76 72 71 69 63 61 58 56 53 58 47 46 45 41 36 33 30 31 33 33 35 37 34 31 29 28 30 34 37 41 42 44 45 51 54 57 60 63 68 71 71 68 68
72 73 71 68 67 66 65 62 58 54 51 48 47 47 39 43 41 36 35 30 24 23 27 26 28 29 29 27 28 29 32 32 33 35 38 42 44 49 51 54 58 61 64 68 66 63 64
65 64 64 64 61 61 59 55 53 48 44 43 42 39 44 38 39 37 33 28 22 23 25 25 21 23 22 24 26 26 26 29 31 33 38 41 45 49 52 56 58 61 64 68 64 61 48
53 51 50 50 51 51 49 51 48 43 41 39 42 44 36 33 34 34 30 25 25 23 22 20 18 19 21 21 21 23 26 31 36 40 44 46 50 54 58 61 60 59 63 63 58 55 46
41 41 41 43 44 44 43 42 41 39 38 39 46 39 32 30 34 30 30 26 26 23 20 20 20 20 19 20 24 28 32 34 38 43 47 50 54 56 57 59 55 56 60 53 50 49 41
38 36 36 39 41 41 39 40 41 40 38 41 38 35 34 34 27 26 27 26 24 25 26 24 24 23 25 27 30 33 36 40 44 50 53 56 56 50 51 51 50 51 45 47 44 38 35
34 34 35 38 39 39 41 39 37 36 34 33 36 36 28 26 29 27 28 29 30 31 29 27 28 31 32 32 32 35 40 47 51 52 52 50 48 45 43 42 39 42 42 44 38 35 33
33 35 38 39 39 39 39 38 35 33 33 33 34 31 30 29 28 26 31 30 31 28 28 29 31 29 30 33 38 44 47 48 51 47 43 41 39 38 37 34 33 37 39 37 33 30 30
36 39 40 40 40 39 38 36 34 31 31 34 33 33 31 28 29 28 28 30 29 28 31 31 31 32 36 40 43 45 46 43 38 35 36 35 35 36 35 33 33 33 32 30 28 27 27
39 40 41 41 41 39 37 34 33 32 34 35 35 36 33 33 33 32 30 29 30 30 29 32 35 39 40 42 42 38 35 32 34 33 31 32 31 31 30 28 28 26 26 25 23 24 26
42 43 43 42 39 37 36 36 35 35 37 39 40 38 34 34 35 34 34 31 29 31 34 37 39 37 38 38 34 32 31 31 31 28 27 27 26 27 26 23 23 22 20 19 21 22 24

GFSGBSN_250_spd_111.txt.gz
Wind_Speed
91 91 95 96 97 90 92 95 90 84 89 90 92 92 86 88 82 81 82 78 78 83 81 80 80 81 80 79 80 77 79 80 84 85 87 85 84 79 79 80 79 79 80 70 68 66 66
97 101 99 99 96 94 93 98 88 91 93 88 86 83 85 84 86 81 79 80 80 84 84 83 82 79 78 76 81 81 84 83 82 83 81 83 85 85 86 84 82 79 72 70 69 70 71
103 100 98 101 96 99 100 98 94 92 96 93 90 90 88 91 89 90 87 85 83 90 89 87 84 81 78 79 85 85 86 87 86 87 87 84 86 88 84 80 80 77 80 75 74 77 72
102 100 102 99 101 97 96 94 95 99 97 100 95 96 94 93 91 91 95 95 92 90 90 89 88 85 81 84 90 90 88 88 91 92 95 90 86 86 86 89 91 82 81 80 80 76 76
104 104 103 103 101 100 99 97 95 99 95 97 99 97 94 95 98 95 94 97 92 91 90 90 90 91 87 88 94 95 97 97 97 96 96 93 88 91 89 89 90 91 87 88 86 79 73
105 104 105 102 102 103 96 93 95 97 98 98 95 97 97 100 100 97 94 95 93 92 90 92 94 96 92 91 96 102 103 102 100 98 96 96 100 97 92 97 95 94 99 94 91 94 83
104 106 105 102 102 100 101 103 100 98 100 98 98 101 99 101 100 98 101 94 89 92 92 97 98 96 97 99 99 99 96 97 98 101 100 105 108 104 108 106 103 104 103 98 97 99 97
100 101 102 103 100 104 107 105 101 100 101 101 101 101 100 95 94 98 95 97 97 99 100 99 99 96 97 104 94 98 107 107 110 108 109 113 113 110 113 115 115 111 109 105 106 106 110
105 104 106 105 103 105 105 103 102 100 102 100 101 101 101 100 100 99 104 100 102 106 110 100 97 96 102 107 106 104 122 111 118 119 117 124 122 121 121 117 115 107 110 109 114 112 112
118 114 111 106 109 107 108 107 106 103 102 105 103 105 104 104 102 106 108 110 108 115 123 103 105 104 107 116 111 115 123 126 124 128 129 128 123 123 124 109 109 111 109 113 112 108 101
124 119 118 115 111 112 111 113 111 107 109 103 109 108 107 113 108 109 113 116 117 121 130 115 114 112 115 119 126 126 126 136 134 133 125 118 118 118 113 109 100 103 102 102 100 103 100
132 126 124 118 118 118 115 117 118 114 115 113 115 115 115 117 118 118 121 122 129 129 129 126 118 121 125 127 131 135 137 132 127 120 111 107 113 106 106 102 99 99 100 99 99 99 96
133 135 129 127 124 123 123 122 122 122 120 121 122 124 124 123 125 126 127 130 134 134 129 131 126 130 135 138 142 141 139 135 122 108 106 104 100 96 95 90 83 82 81 83 88 90 87
137 137 138 133 133 132 129 131 125 126 126 128 127 131 128 128 131 133 137 142 144 136 139 141 136 139 141 136 127 126 122 107 100 96 91 85 82 80 74 71 70 68 68 68 73 75 79
145 141 139 137 140 141 138 137 136 136 136 136 138 136 138 139 140 142 145 139 137 132 129 126 127 126 122 124 120 105 94 87 81 78 77 72 73 70 62 64 63 59 59 64 65 67 70
144 144 142 142 137 141 144 146 141 143 146 145 141 145 145 141 137 136 134 135 124 121 123 122 124 121 111 104 95 91 82 70 66 66 68 67 64 58 56 54 55 55 52 53 57 58 60
128 132 137 139 140 142 143 146 145 141 142 145 145 141 137 137 135 136 123 116 114 112 106 107 97 95 89 87 73 71 67 60 58 59 61 60 59 55 50 48 49 48 48 49 50 49 53
114 115 117 120 123 122 122 123 124 125 123 126 128 129 129 126 123 115 110 105 100 99 94 85 82 77 69 63 64 62 58 53 50 49 48 50 49 48 45 40 44 42 40 40 40 44 46
99 101 105 110 112 112 113 111 113 111 110 110 111 108 107 106 108 103 96 90 85 82 78 68 60 58 55 56 55 52 48 47 44 40 39 40 38 40 36 37 40 40 39 39 40 42 41
90 93 92 95 96 95 94 95 96 99 103 102 100 100 91 87 80 74 72 71 72 65 55 51 49 50 50 49 46 46 41 37 34 32 33 34 37 34 32 30 34 38 39 40 38 39 44
78 78 78 82 89 83 83 82 85 85 82 84 80 77 74 69 62 61 55 57 55 49 45 47 44 45 43 42 40 33 28 29 29 30 31 32 31 30 30 31 36 38 38 39 39 44 46
67 68 68 69 68 71 72 73 77 80 79 80 75 71 69 64 60 55 52 51 46 44 42 40 42 36 38 34 29 26 24 27 29 31 31 32 30 33 35 37 40 41 43 45 45 47 48
53 53 54 57 59 59 61 64 69 70 71 71 67 66 65 59 57 54 48 46 44 43 37 36 36 35 33 29 25 24 22 27 30 31 34 35 35 37 38 39 40 40 42 46 47 49 50
39 41 45 48 50 51 53 55 56 60 63 59 59 63 56 53 52 48 46 43 43 39 34 36 32 32 33 27 25 23 25 26 25 28 30 31 35 37 38 40 40 42 44 50 49 50 51
39 41 40 41 42 43 44 46 48 50 51 52 53 52 50 50 48 45 42 42 38 35 34 34 29 32 31 28 28 26 26 25 27 30 33 35 37 41 43 46 46 48 49 49 48 48 47
35 32 33 33 36 37 39 41 43 44 48 49 49 47 46 46 43 42 43 43 41 35 33 31 33 33 32 31 31 28 31 32 34 35 38 41 44 46 47 49 48 46 47 43 40 41 37
30 31 30 31 31 34 35 37 39 43 45 47 47 46 43 41 42 42 42 41 38 34 33 33 36 36 35 33 30 31 35 36 38 40 44 46 47 49 48 45 43 39 36 35 35 35 32
30 30 30 30 31 33 35 39 40 40 40 42 44 43 41 40 40 42 42 39 36 36 35 35 34 37 33 30 32 37 39 41 43 46 48 48 47 42 39 37 36 34 33 32 31 30 28
29 27 27 29 30 32 34 36 39 40 41 41 42 42 42 43 41 39 41 40 37 33 35 34 33 33 31 34 37 38 40 43 45 47 44 43 39 37 34 34 34 33 32 32 29 27 24

GFSGBSN_250_spd_114.txt.gz
Wind_Speed
95 89 93 90 92 91 94 91 86 88 83 85 90 90 88 86 88 82 75 76 80 78 77 75 75 77 74 73 79 73 74 74 73 74 74 73 76 74 75 75 77 75 77 77 76 79 81
98 95 94 95 93 92 92 90 87 91 92 90 94 95 89 85 86 85 83 79 78 78 77 73 75 75 74 72 78 76 75 75 74 72 75 78 78 80 81 83 82 78 77 79 78 80 77
97 101 97 97 96 95 94 91 90 91 95 97 95 92 93 89 90 93 87 84 84 82 83 81 76 76 74 75 80 77 76 77 76 78 76 77 78 82 82 80 81 86 83 84 81 78 77
99 100 100 100 99 98 97 100 100 98 94 92 92 94 93 90 89 90 88 87 84 84 78 79 79 81 79 82 80 82 83 81 83 85 82 85 84 84 87 87 86 88 86 83 81 87 87
100 100 102 104 105 104 106 106 106 103 98 95 95 92 93 94 94 92 88 83 81 81 80 82 85 82 81 82 86 87 86 86 85 85 86 87 88 90 91 92 91 88 87 91 86 90 95
108 109 106 106 107 106 104 107 102 99 97 98 101 97 95 94 92 89 91 88 86 86 87 85 89 85 85 86 87 85 86 86 89 91 93 95 95 93 92 95 94 92 93 90 87 91 103
110 112 110 108 109 107 107 107 105 101 100 100 104 103 104 103 95 93 95 96 92 97 91 91 92 86 88 90 86 83 85 89 92 95 96 99 97 93 97 97 97 100 101 97 92 97 110
110 110 109 110 110 111 109 108 109 109 104 103 105 101 100 100 97 98 98 99 101 101 95 94 90 86 85 88 87 90 93 92 94 95 99 102 95 96 101 103 109 107 108 108 111 111 117
108 109 109 106 105 107 108 107 107 105 101 99 101 100 101 101 96 95 100 103 100 104 102 87 88 90 92 94 92 94 103 102 100 103 104 109 101 108 109 111 118 115 117 118 123 118 116
111 109 109 107 106 104 102 102 101 103 99 99 98 99 102 101 100 100 100 103 104 107 103 87 93 89 90 98 98 102 105 105 106 109 115 113 113 118 118 120 125 128 129 130 125 120 108
114 112 111 112 109 108 106 106 104 105 104 106 104 102 105 105 102 102 103 109 109 112 109 93 95 94 94 100 107 110 110 113 114 120 122 117 125 129 133 129 128 133 127 111 111 107 104
123 122 120 118 116 111 110 111 111 109 109 108 112 115 112 110 107 104 107 109 113 117 107 98 101 100 105 107 112 116 117 119 121 126 132 134 135 131 131 129 129 122 114 101 91 92 98
136 131 132 129 127 125 121 118 119 121 120 120 121 122 119 115 111 110 114 118 120 113 108 109 108 108 111 114 118 118 120 124 128 137 136 134 128 127 119 118 116 97 91 86 81 76 76
140 137 137 135 134 129 128 129 131 128 129 129 126 128 123 118 117 116 121 123 126 112 113 119 118 116 115 120 125 127 126 134 136 135 127 114 112 105 97 92 89 81 81 77 73 64 60
147 146 144 143 141 141 138 133 129 132 130 130 130 127 126 126 125 125 128 130 120 113 119 120 127 124 123 127 132 133 133 129 129 113 104 102 88 82 84 82 75 71 67 65 63 58 53
143 146 148 147 146 143 143 140 139 138 138 135 132 133 131 129 129 132 136 131 124 123 126 129 129 134 134 135 134 132 126 115 109 102 95 86 79 75 71 66 66 61 57 56 56 49 47
128 129 132 134 137 139 139 141 143 142 140 137 136 134 128 129 134 137 139 130 128 130 130 131 133 135 135 133 134 128 121 108 92 89 84 76 65 65 65 58 56 46 47 49 50 46 41
122 123 123 122 122 123 123 123 129 130 137 137 138 137 135 135 136 133 130 129 127 125 128 132 133 129 128 119 117 107 100 89 83 75 63 60 60 56 55 48 43 44 36 42 43 41 39
108 108 108 111 114 118 118 115 114 116 123 129 134 134 136 138 136 132 132 128 129 127 127 118 112 114 105 100 96 88 79 72 66 58 53 53 50 47 46 43 38 33 33 35 37 35 33
92 95 96 99 103 103 104 108 111 110 109 110 114 118 122 124 121 120 117 114 111 103 98 94 86 87 89 82 71 66 64 56 54 51 47 45 44 38 35 32 27 28 29 30 30 31 36
80 79 83 87 88 92 94 95 97 99 107 107 107 108 103 102 99 102 100 99 94 91 87 83 82 74 69 60 54 52 52 47 46 44 39 36 31 27 27 25 24 24 25 28 30 33 35
67 69 69 71 75 77 81 85 91 91 92 94 95 96 95 94 97 98 94 92 86 81 77 66 63 61 49 45 46 45 44 43 40 33 31 28 28 27 29 29 27 28 31 34 36 38 39
58 60 60 61 62 66 70 77 76 82 84 84 83 82 78 75 76 76 69 66 63 61 58 54 49 42 39 41 39 42 39 34 33 27 24 28 31 32 30 32 33 33 36 38 41 43 46
49 49 50 51 52 55 59 62 62 68 70 70 72 75 71 70 70 69 66 62 58 56 55 49 41 38 36 37 39 37 34 31 30 27 25 29 32 32 34 36 35 38 35 40 42 45 48
41 42 43 43 44 48 51 52 54 59 62 62 62 64 64 64 65 69 67 62 57 54 47 42 34 39 41 35 34 33 31 30 28 26 28 29 30 31 32 36 40 42 42 47 47 50 51
36 37 38 40 38 39 42 46 48 52 54 52 55 55 58 59 61 61 55 55 51 42 38 39 43 41 33 33 30 30 32 30 28 30 30 33 35 37 40 43 43 44 44 46 46 51 51
32 33 32 31 32 33 35 38 41 43 45 49 49 53 56 57 58 54 52 45 41 39 40 39 39 35 31 30 29 31 30 31 33 33 35 38 41 43 44 45 44 48 47 45 44 43 39
28 26 26 28 28 29 32 35 36 39 43 44 48 48 48 47 47 46 41 39 38 40 41 38 37 31 31 31 32 31 34 38 37 38 40 42 44 44 46 46 45 43 40 37 37 34 32
24 25 25 26 27 28 30 34 38 39 40 43 43 44 44 43 42 41 43 44 44 39 39 39 35 32 33 34 34 36 39 42 41 40 41 44 44 46 43 41 37 35 33 33 32 30 28

GFSGBSN_250_spd_117.txt.gz
Wind_Speed
96 95 95 96 94 94 89 93 88 91 90 87 84 84 84 82 80 80 74 75 76 75 77 79 74 69 71 67 72 63 69 68 65 65 67 68 68 69 70 63 64 65 65 70 72 74 76
93 98 97 97 98 95 95 94 93 94 92 92 87 88 87 83 82 82 80 79 82 81 79 78 77 74 72 74 73 67 68 70 67 66 69 69 67 65 62 65 68 67 68 67 69 73 76
94 96 99 96 99 97 98 98 97 96 98 94 92 90 91 90 85 86 86 83 83 85 87 81 76 75 75 79 75 72 68 68 70 70 68 68 67 64 68 71 73 77 74 74 75 78 81
99 96 93 93 94 93 92 93 94 97 101 95 92 93 91 91 90 90 91 90 91 88 88 83 81 80 76 77 77 74 72 69 71 74 75 79 82 82 82 82 78 76 78 76 79 83 85
111 104 102 101 98 96 95 93 92 93 96 96 94 96 97 97 96 95 96 96 92 89 84 85 85 81 78 76 76 77 78 79 80 80 82 83 81 81 80 81 80 85 82 81 77 86 88
114 113 109 108 106 102 102 100 99 97 97 97 95 97 100 101 98 100 98 95 88 85 81 83 83 82 84 81 77 79 78 77 80 82 83 83 83 78 80 83 82 86 86 84 78 80 89
116 116 117 114 112 108 106 105 106 106 105 105 104 103 105 105 102 100 98 93 94 92 87 89 88 83 82 86 82 82 81 83 85 85 84 83 83 81 87 91 92 93 93 92 90 88 98
115 116 115 116 116 114 110 111 111 109 109 111 110 109 106 103 101 100 99 99 101 98 90 88 88 82 85 90 83 84 87 86 86 86 89 90 86 92 92 92 94 97 97 97 97 99 106
117 114 115 108 104 107 109 107 107 109 111 109 110 107 108 108 104 104 101 104 104 103 94 85 87 84 83 84 84 84 87 87 87 87 91 90 89 94 96 96 101 103 107 107 108 110 110
117 116 114 110 110 103 104 103 104 108 109 110 107 109 105 102 98 97 99 102 104 101 90 79 83 78 82 87 88 89 91 93 93 93 99 91 96 100 101 102 111 110 112 117 119 122 123
115 114 115 114 112 107 104 106 104 105 109 109 107 105 105 100 98 95 97 100 100 98 90 80 82 83 87 90 93 92 92 95 98 100 104 91 101 104 105 107 111 113 118 122 127 132 127
123 121 120 117 115 112 112 107 107 108 110 108 109 107 103 102 100 100 104 106 104 99 85 85 89 95 96 94 96 99 100 98 99 100 104 101 106 109 110 113 113 117 121 123 124 113 100
134 132 128 125 125 122 118 115 114 114 116 113 112 109 105 103 103 105 109 109 110 98 91 91 99 101 101 101 100 102 108 105 104 106 108 110 107 111 115 116 118 123 122 115 107 101 88
139 139 137 135 131 129 126 125 124 124 123 122 117 116 114 111 111 112 114 116 115 95 99 103 109 109 105 106 104 105 107 108 112 115 112 114 113 119 122 122 124 122 110 99 88 80 72
143 142 139 137 138 133 132 129 131 130 132 130 128 126 123 120 119 121 125 127 110 103 106 113 117 115 113 111 113 112 114 111 114 117 118 119 120 122 125 126 118 102 94 87 78 70 60
133 135 137 138 136 135 135 132 134 132 133 132 131 130 131 130 129 133 132 127 111 111 116 118 113 116 114 116 117 116 115 115 119 116 118 119 118 118 113 104 96 83 78 72 66 57 53
124 122 127 127 128 131 133 134 134 137 139 140 135 134 130 132 133 135 135 120 116 119 121 120 122 120 120 112 115 116 112 113 114 112 116 119 110 96 91 87 77 72 68 62 59 52 52
117 118 119 119 119 120 122 126 127 133 137 140 138 137 133 136 139 139 133 128 125 122 124 124 124 122 122 120 116 117 117 115 120 119 118 98 89 84 74 67 61 61 55 55 51 49 48
106 107 108 109 111 114 114 114 116 122 124 131 132 131 134 138 140 132 126 124 125 124 125 127 126 123 124 121 119 120 119 114 107 96 88 87 77 65 62 57 55 52 51 49 45 40 39
94 98 100 99 102 104 104 104 110 115 116 120 121 120 116 117 118 116 114 111 112 115 120 118 117 117 118 121 118 113 101 95 91 84 80 70 61 57 53 50 47 45 39 34 28 28 32
82 83 85 87 90 93 94 96 99 101 103 108 113 112 109 110 106 106 104 101 98 96 95 101 99 100 102 103 97 93 86 77 77 73 66 56 50 47 47 44 39 30 26 26 26 27 25
69 71 74 76 76 77 80 83 87 92 93 99 100 99 95 91 96 99 100 96 91 88 86 84 85 86 85 76 74 78 77 66 66 60 52 45 41 42 39 34 29 25 24 27 28 30 29
61 60 61 64 66 67 69 72 74 80 84 87 86 88 87 86 84 82 78 81 87 90 84 78 78 77 76 75 70 57 53 53 50 47 43 38 40 34 30 30 31 28 27 28 34 37 35
53 53 54 58 59 60 59 59 63 66 69 70 72 76 74 71 69 68 72 72 72 76 77 75 72 66 60 52 44 43 46 44 45 40 37 35 38 31 30 30 28 30 31 36 40 40 41
46 47 48 50 51 50 49 51 54 56 58 57 59 62 62 59 59 62 63 59 61 62 61 58 53 46 42 38 37 40 40 41 37 31 32 35 32 31 29 28 29 29 34 37 41 43 48
37 39 40 41 41 42 43 46 47 49 48 49 56 53 50 50 51 60 60 59 58 55 54 44 43 45 41 42 38 38 40 40 30 31 34 31 32 31 32 32 33 40 39 41 44 50 51
32 33 34 35 35 36 38 38 39 42 45 44 45 43 45 46 54 53 54 57 55 52 46 46 45 43 40 40 37 37 37 31 28 30 33 34 35 35 35 38 40 41 42 45 45 50 51
27 28 28 28 28 31 33 33 34 34 38 39 40 44 44 46 48 49 49 47 48 46 46 44 39 37 37 36 35 40 36 26 28 34 35 36 36 38 40 42 42 43 45 43 42 41 39
24 23 23 25 26 28 29 29 29 32 35 37 41 41 42 44 43 43 41 38 31 35 38 38 38 37 36 33 36 35 28 27 30 34 36 38 39 41 43 43 43 44 41 38 34 33 32

GFSGBSN_250_spd_120.txt.gz
Wind_Speed
84 88 89 88 85 87 86 86 85 86 91 90 87 86 86 84 81 80 79 79 76 73 73 72 71 71 68 70 74 66 69 71 68 65 65 66 65 59 56 60 59 58 60 59 57 59 62
92 86 86 86 90 90 86 94 95 91 89 91 91 90 87 87 87 84 83 85 82 80 77 74 72 73 73 76 71 70 70 73 72 70 69 68 68 66 59 64 65 65 59 55 61 69 69
92 89 92 92 91 88 90 89 92 90 92 92 94 94 91 93 88 88 86 86 86 84 81 77 78 74 76 81 79 77 79 79 77 74 71 71 70 71 67 68 67 63 58 63 69 75 81
99 101 99 100 97 94 93 96 94 90 93 93 96 96 94 93 92 91 92 93 89 87 81 80 77 76 78 80 80 82 80 80 78 77 76 74 68 66 67 69 65 67 70 72 77 81 81
102 104 101 103 102 102 102 100 104 99 99 95 95 95 93 93 91 87 87 87 86 85 85 82 81 82 82 83 83 82 81 76 73 73 73 71 71 73 73 74 76 79 76 76 78 80 83
106 107 108 109 107 105 107 107 106 107 108 106 101 98 97 92 94 92 90 89 88 86 86 85 82 86 84 81 83 79 76 77 78 78 75 76 75 72 75 78 78 78 76 75 77 81 83
109 110 107 109 107 109 109 107 110 111 108 103 105 101 100 97 98 98 93 95 95 88 87 85 84 85 90 88 81 79 79 81 83 81 81 81 79 80 84 81 81 83 83 79 80 87 88
114 115 114 114 110 109 108 110 107 107 109 108 105 100 101 100 101 102 99 99 97 94 88 91 92 90 88 89 83 87 86 84 83 82 83 83 79 76 77 81 81 82 84 84 82 90 96
126 122 118 115 112 111 112 110 111 109 110 107 106 104 102 99 100 101 102 105 102 99 94 91 97 92 90 89 88 87 86 84 84 81 80 78 77 80 81 83 85 86 92 91 92 94 97
122 121 120 117 117 115 114 114 113 113 113 112 109 108 106 101 95 95 99 100 100 98 94 83 86 84 85 85 86 87 88 85 81 79 78 76 81 84 83 85 91 85 97 97 98 100 100
126 123 121 121 119 118 117 117 116 113 113 112 113 110 107 102 97 93 100 100 99 97 92 86 84 83 80 84 85 84 82 81 83 82 81 83 89 88 87 93 100 93 102 103 103 105 110
133 131 128 126 123 121 119 118 117 116 117 116 113 109 103 103 99 98 102 101 100 96 86 86 85 85 86 86 85 86 84 83 85 86 85 86 92 95 96 97 101 100 104 106 107 111 113
138 136 133 131 127 126 125 121 119 115 116 117 114 110 108 110 107 103 104 103 103 92 84 84 90 91 88 86 87 88 90 88 91 91 92 92 96 102 101 100 106 107 108 111 114 116 117
143 141 137 135 132 129 127 126 124 122 122 123 119 118 114 112 113 113 111 111 105 88 88 92 93 96 90 89 89 92 94 93 97 98 98 97 99 105 105 105 107 108 109 111 113 113 114
144 143 142 140 139 138 135 132 131 131 130 130 127 124 122 123 121 120 122 121 103 97 94 98 105 103 96 94 97 96 96 98 101 106 106 105 104 102 107 109 106 105 104 110 115 109 100
134 134 136 138 139 139 138 136 138 137 138 135 134 131 126 130 128 126 128 121 104 104 108 108 107 109 105 106 107 107 103 102 105 107 108 108 104 107 108 109 110 106 106 111 101 90 80
127 127 124 125 130 132 133 133 136 140 142 141 141 137 134 134 135 136 134 122 114 112 114 115 114 113 111 113 115 116 113 112 108 108 109 111 110 107 111 111 109 107 100 93 90 72 65
120 123 121 119 122 123 123 123 125 131 133 134 136 131 135 137 140 141 134 122 124 117 118 117 114 112 111 115 115 112 110 111 112 114 113 113 110 107 108 103 101 95 89 83 70 62 56
105 106 108 111 115 117 119 120 120 120 121 122 120 117 121 127 132 124 122 120 121 121 116 118 117 118 118 114 114 111 111 114 115 115 112 112 107 102 97 92 85 78 75 67 63 58 50
92 94 95 97 100 102 104 109 112 115 116 119 116 115 111 113 112 109 109 108 112 114 118 118 116 117 117 116 114 109 109 109 105 103 99 98 93 87 78 71 74 68 60 57 55 49 46
84 84 85 86 89 92 94 96 98 100 103 108 105 103 100 106 105 104 107 104 101 100 100 103 102 101 105 103 104 96 92 85 82 82 79 78 75 69 71 70 62 51 50 49 47 45 38
74 75 76 77 79 81 85 87 90 93 95 97 91 91 90 89 92 93 99 98 97 96 95 92 93 94 91 87 85 83 79 72 72 70 65 63 67 68 60 57 48 43 45 45 39 37 39
67 66 68 69 70 73 76 79 81 82 82 83 78 80 86 78 82 87 83 80 83 88 86 87 91 93 89 87 85 80 78 67 66 62 62 62 60 53 48 46 43 41 43 42 39 38 36
59 59 60 60 62 64 65 67 67 69 68 70 68 74 76 69 71 72 72 74 76 76 74 73 69 69 72 74 74 75 69 66 61 57 55 50 49 45 43 43 39 40 39 39 38 35 34
51 51 52 52 54 56 58 59 59 57 58 56 60 63 63 60 61 63 58 64 65 63 64 67 63 60 60 58 59 57 56 52 48 48 44 40 41 38 38 39 36 38 40 37 37 35 37
43 43 44 45 47 47 48 50 49 49 48 47 50 52 48 46 47 54 55 53 52 54 55 52 54 53 53 50 47 43 42 44 43 40 38 39 38 37 35 34 35 40 38 38 38 44 44
36 36 37 38 39 40 40 41 41 41 41 44 45 44 40 38 46 46 47 48 50 50 47 48 47 45 45 40 39 38 41 42 38 37 39 37 35 35 34 35 38 39 39 41 43 45 47
32 32 31 32 34 36 37 38 38 39 39 39 40 39 40 43 45 44 45 45 45 43 42 43 43 41 38 34 31 36 38 38 38 36 33 31 34 36 36 38 38 38 41 42 45 48 47
28 28 27 29 30 31 31 32 32 32 32 33 33 32 37 39 38 41 39 39 41 40 41 42 42 38 37 36 37 38 36 38 37 32 31 32 34 35 36 36 37 39 40 42 44 44 41

GFSGBSN_250_spd_123.txt.gz
Wind_Speed
85 80 81 87 83 83 82 83 85 82 82 85 84 80 77 76 76 75 79 79 81 78 78 78 75 74 75 76 74 69 71 71 68 69 67 68 66 62 63 65 62 62 61 59 58 58 58
86 81 83 85 88 88 86 84 82 81 88 87 83 81 77 77 82 81 82 82 80 80 80 78 76 77 78 82 76 75 72 72 73 72 71 71 70 68 69 70 64 61 61 61 58 60 61
93 91 92 92 91 90 89 85 88 94 89 85 81 80 77 82 83 82 81 81 83 81 80 82 81 81 84 84 82 82 78 75 73 72 75 73 72 69 67 68 65 63 61 61 62 63 62
92 98 90 90 88 89 90 95 91 90 91 88 91 88 85 85 82 84 82 83 82 84 84 84 83 79 82 84 83 79 76 78 76 76 77 74 74 71 69 68 65 62 61 61 63 65 63
101 95 96 96 95 101 99 97 97 96 97 96 95 89 94 95 87 87 88 86 84 86 83 86 84 84 84 83 80 81 82 80 80 79 79 78 75 72 69 67 63 65 66 68 68 68 71
97 97 95 98 97 100 101 95 96 96 100 94 97 97 96 97 93 94 97 92 94 90 89 86 85 84 83 82 82 80 80 79 79 80 81 81 79 74 74 75 70 73 72 71 71 73 73
105 104 103 105 104 99 103 104 101 103 101 101 102 101 99 99 96 97 99 99 96 94 92 88 82 82 86 83 81 83 85 84 85 84 86 83 79 78 81 81 80 76 75 74 78 76 72
112 114 110 111 111 105 108 108 111 107 109 106 103 100 97 99 102 101 100 99 92 91 90 86 85 80 87 83 82 88 84 84 87 88 89 86 84 83 84 84 82 80 77 73 70 72 73
117 115 116 115 114 116 115 117 115 112 109 105 105 107 108 101 100 100 102 100 96 93 91 85 84 83 86 88 86 92 89 88 89 87 85 82 81 82 83 82 82 81 79 74 76 76 76
128 126 124 121 120 120 121 121 120 120 120 119 116 112 108 104 100 104 105 102 100 98 93 88 88 86 87 86 86 87 86 84 84 81 81 77 84 83 81 79 80 78 80 79 80 85 82
132 129 132 133 131 129 127 126 126 125 125 121 117 110 107 106 104 108 106 106 104 101 97 90 85 82 84 86 85 84 84 82 81 81 83 81 82 82 81 82 81 80 83 84 84 88 91
137 137 130 129 127 125 123 124 123 122 121 119 117 113 111 109 110 111 109 109 109 106 93 93 88 90 88 84 81 83 85 85 83 82 81 83 87 84 84 85 86 88 89 90 93 96 97
138 137 135 133 130 128 127 126 126 125 125 124 123 120 117 113 115 115 114 113 112 103 97 96 94 92 87 85 84 83 85 84 85 86 86 85 84 87 86 87 91 92 97 98 99 102 103
143 141 139 139 138 136 136 133 131 131 131 131 128 124 123 120 123 120 118 115 113 99 98 99 100 98 94 93 87 89 86 84 87 87 88 88 87 91 92 92 95 96 99 102 107 108 110
143 140 140 139 138 138 137 137 137 137 135 136 133 129 125 124 127 123 122 121 109 101 102 101 105 103 102 97 95 96 97 88 89 90 91 93 93 98 99 101 102 102 104 107 113 114 114
150 148 147 146 146 145 145 145 143 141 139 140 137 135 129 134 131 129 131 121 109 107 107 107 109 111 106 108 107 105 101 100 98 97 98 96 97 98 101 105 106 109 110 112 113 114 113
148 150 150 151 149 146 148 150 149 148 145 144 142 138 137 135 135 136 133 121 115 115 115 115 112 115 115 112 111 112 109 101 101 99 101 103 104 104 104 106 109 108 110 114 114 112 110
132 134 133 130 130 132 132 133 135 132 127 129 127 123 126 127 130 128 126 120 124 121 120 120 118 116 116 118 118 116 112 111 107 107 108 107 105 103 103 106 107 108 109 111 109 100 91
117 119 121 123 124 127 127 125 124 125 121 123 119 118 116 119 118 113 110 113 116 115 116 118 120 121 122 121 121 119 118 116 114 112 113 110 105 103 102 103 102 104 103 96 90 81 70
103 106 108 109 111 112 112 114 113 115 116 114 114 114 117 116 113 107 102 100 102 104 106 105 109 110 117 122 120 113 114 113 113 111 110 108 103 100 99 97 92 87 84 79 75 68 66
94 96 97 97 98 99 101 102 101 104 105 106 105 100 105 106 106 108 107 102 101 99 94 95 95 95 99 101 101 98 98 100 97 97 95 96 93 91 82 76 74 74 70 67 69 61 52
84 85 86 86 87 89 88 90 91 93 98 97 91 88 93 93 96 96 94 91 90 91 92 94 94 100 99 92 90 90 88 83 80 80 81 82 77 73 69 67 69 65 64 66 57 50 45
78 78 79 79 80 81 81 81 82 84 89 86 82 80 83 81 84 88 80 78 77 83 84 83 83 86 87 88 92 86 82 77 75 75 74 74 71 70 67 68 68 62 57 51 48 45 43
68 70 71 72 72 72 72 73 74 77 77 75 73 74 75 71 74 74 75 75 71 74 73 76 76 73 75 75 74 74 74 75 75 73 73 70 69 69 64 64 61 51 47 47 44 42 40
59 60 62 64 64 65 66 66 65 66 66 64 66 65 65 61 64 63 65 65 66 66 63 66 65 64 67 65 64 58 55 59 57 54 54 56 57 58 58 56 47 41 46 43 40 37 42
51 52 53 54 56 57 58 57 57 57 57 55 56 56 53 53 51 58 58 58 57 54 53 54 62 57 55 57 59 54 52 49 46 46 48 46 48 51 50 45 38 41 42 39 36 39 38
42 44 45 47 48 49 49 49 49 50 49 47 49 47 45 42 46 45 47 50 47 48 48 50 50 49 49 48 46 45 46 46 42 41 40 44 43 43 41 38 36 43 39 38 36 38 39
35 36 38 39 41 42 42 41 42 43 42 41 45 42 39 38 42 40 42 42 41 44 46 47 46 43 42 41 39 39 39 39 37 39 41 40 37 36 38 36 38 38 37 37 37 37 40
29 30 31 32 33 34 35 37 38 38 38 39 40 37 35 35 40 39 39 38 41 43 41 36 37 39 40 39 38 36 33 33 37 37 38 35 33 35 36 36 34 35 36 38 38 40 42

GFSGBSN_250_spd_126.txt.gz
Wind_Speed
90 88 84 84 84 87 86 82 80 80 76 75 73 73 74 74 77 76 75 75 78 74 70 69 68 72 74 74 72 72 70 71 74 69 69 69 66 66 66 65 66 65 64 60 58 58 53
85 85 86 83 83 82 79 75 77 72 74 76 75 77 76 77 76 76 71 75 76 72 73 71 70 73 73 75 70 71 73 73 73 73 72 71 72 70 68 69 65 62 63 63 57 56 54
87 85 86 94 94 87 84 79 86 80 81 78 78 80 84 84 78 75 82 81 77 73 68 68 72 76 77 74 75 75 74 73 73 74 74 70 71 66 67 71 68 67 60 62 60 58 55
98 98 93 92 94 89 90 90 90 91 85 83 85 87 88 83 82 83 87 86 82 81 79 73 76 79 79 77 76 76 76 78 78 78 77 72 72 73 71 71 68 66 65 63 61 57 56
96 94 90 91 92 94 94 93 88 89 89 86 87 88 84 86 86 86 88 89 86 85 85 78 79 81 83 83 84 83 85 82 82 81 81 80 76 74 74 74 71 72 69 68 61 59 59
101 103 97 101 100 96 97 98 95 96 93 93 95 94 94 93 93 91 89 86 86 84 81 84 88 85 84 84 87 87 85 81 81 79 78 78 75 73 79 78 75 74 72 71 69 68 67
118 112 107 107 110 107 104 104 104 94 100 93 86 97 92 85 89 94 91 87 86 83 84 86 89 84 82 88 92 86 80 79 80 82 83 80 77 76 81 78 77 77 76 74 72 72 69
117 113 111 112 108 108 107 105 97 98 99 92 88 93 92 95 101 90 94 94 94 92 89 93 92 87 92 91 84 87 85 84 83 81 83 82 79 81 83 84 82 80 77 74 74 75 73
119 113 117 115 116 114 114 109 108 104 100 101 101 98 100 102 99 98 98 97 100 99 96 93 91 92 94 90 85 89 85 85 85 85 84 82 80 82 82 83 80 74 74 76 75 77 77
122 119 117 119 117 118 117 117 116 115 112 107 108 107 104 103 105 107 105 102 104 106 99 97 98 96 96 91 88 90 89 89 88 86 84 81 83 81 78 76 78 75 79 78 79 81 79
129 126 124 123 124 121 120 120 117 117 118 116 113 107 111 113 113 113 114 115 114 113 110 104 100 94 91 92 92 91 91 91 90 87 85 84 83 77 76 78 77 78 81 83 84 83 81
132 129 128 129 129 127 124 121 122 122 123 122 122 121 122 120 121 120 120 120 116 111 102 98 90 89 91 94 93 94 93 93 93 90 87 86 85 81 80 81 82 83 84 86 88 88 83
137 136 133 133 132 132 131 129 130 128 128 128 127 128 126 125 122 120 118 115 114 105 98 98 95 95 97 97 97 98 98 95 94 93 89 88 85 84 83 82 84 85 86 87 88 90 88
141 138 138 137 134 134 134 132 131 133 127 125 125 124 122 122 123 122 119 115 114 102 102 105 104 103 103 103 102 101 99 98 95 97 95 91 89 90 89 88 89 89 91 92 92 92 92
142 141 142 141 140 138 138 138 135 134 135 132 129 126 124 130 128 127 128 125 114 109 108 111 113 112 110 107 105 103 99 98 97 100 99 95 92 96 96 94 94 96 98 98 100 100 98
146 146 144 142 141 142 141 142 141 139 139 139 136 132 130 135 133 134 133 125 119 116 115 114 116 118 112 112 111 108 105 101 102 102 104 99 96 99 101 103 104 104 99 102 103 102 103
140 142 145 146 146 143 141 141 141 141 141 140 141 138 135 138 137 138 132 124 121 120 124 124 121 121 121 121 120 116 113 107 105 104 107 106 104 100 104 105 106 106 107 106 107 106 106
124 127 132 137 143 146 147 146 146 147 147 144 141 139 138 140 141 139 131 127 128 128 132 130 125 124 122 121 118 111 112 111 110 111 107 108 109 106 108 108 108 109 109 110 111 110 111
114 117 119 123 127 131 133 135 139 142 142 140 138 141 140 141 138 134 131 125 122 120 118 117 111 106 103 108 106 108 108 111 112 114 112 111 111 110 109 108 108 110 111 114 109 109 103
103 107 110 112 114 118 119 120 121 127 130 130 127 126 127 126 124 122 116 108 110 106 104 101 100 100 101 100 97 94 99 101 103 105 105 104 107 106 103 105 107 103 99 96 94 87 84
95 95 98 101 104 106 106 108 111 113 115 115 118 113 113 114 113 112 111 106 105 102 101 98 98 100 105 100 96 92 93 92 92 92 91 93 88 89 90 89 86 80 77 73 69 70 74
86 86 89 91 93 95 98 99 100 102 104 102 101 97 99 102 101 99 97 91 90 92 91 91 92 94 93 89 100 99 97 89 85 84 82 82 80 79 76 78 76 68 62 62 63 67 66
79 79 82 85 86 88 90 91 92 93 93 92 88 88 89 88 90 89 85 83 82 85 85 84 83 85 80 84 92 87 87 83 79 80 81 82 81 79 76 72 68 59 63 65 68 69 66
72 73 74 76 78 79 81 82 83 84 83 81 80 81 80 78 78 76 77 77 74 76 77 78 75 73 75 80 79 74 71 70 69 65 67 69 71 75 75 72 68 63 61 65 66 62 60
63 64 66 68 70 71 72 74 75 74 74 71 72 70 69 69 69 67 69 73 70 69 69 70 71 71 73 70 67 65 61 58 55 56 56 57 59 63 67 64 58 55 54 58 55 52 54
53 55 58 59 61 64 65 66 66 67 66 63 62 61 59 59 55 66 66 64 62 63 64 60 66 68 63 63 62 59 54 50 49 48 52 50 50 52 51 51 48 45 48 51 45 45 44
45 48 50 52 54 55 56 56 57 58 57 56 55 56 53 46 53 56 57 59 59 57 54 55 56 57 56 55 55 52 48 46 45 45 46 45 46 46 46 45 39 40 45 41 41 38 40
39 41 42 45 46 47 47 48 48 49 50 49 53 48 45 43 50 50 48 48 48 48 49 48 53 50 48 46 46 43 43 42 42 43 44 44 45 42 41 40 37 39 37 36 34 36 37
33 35 36 37 38 39 41 42 42 43 43 43 43 42 41 40 49 41 42 44 43 45 45 45 43 43 41 41 41 41 38 38 41 40 42 41 38 38 39 35 33 35 34 33 32 33 33

GFSGBSN_250_spd_132.txt.gz
Wind_Speed
92 90 88 87 85 84 85 84 78 80 75 71 75 72 73 80 76 75 74 75 78 75 75 74 71 68 65 67 62 64 61 63 62 62 60 57 58 57 57 54 54 51 54 54 55 56 55
88 92 92 91 90 86 86 82 85 79 76 74 73 69 71 73 81 78 73 72 72 70 69 69 68 66 61 62 62 63 63 63 64 65 61 62 64 63 60 59 57 58 58 56 59 60 60
90 92 92 91 92 91 89 85 82 80 82 80 79 72 68 66 67 69 68 63 61 65 64 63 63 62 64 66 67 68 69 67 69 67 66 67 64 65 60 61 61 58 61 66 62 63 62
96 87 91 91 91 94 94 90 89 77 75 79 82 73 71 67 65 63 64 66 64 66 67 67 70 69 70 66 67 70 69 69 72 68 67 65 67 66 60 59 61 60 64 68 70 71 71
94 100 91 95 87 92 94 90 92 84 83 79 77 80 76 70 70 71 72 76 75 67 67 70 73 73 69 70 71 73 72 75 76 71 69 69 68 70 68 65 66 64 67 71 74 73 74
102 104 99 97 100 96 99 98 92 89 85 86 90 82 86 81 82 81 83 81 83 81 73 71 70 68 71 75 75 77 77 79 79 74 68 66 67 74 73 69 68 70 73 73 77 75 72
102 108 103 104 102 108 102 100 94 93 85 88 92 85 83 89 92 93 92 88 81 74 76 74 78 80 80 77 77 84 85 80 77 76 73 73 70 75 73 75 73 75 80 83 85 83 76
110 107 108 110 109 102 105 100 96 97 91 90 95 91 92 88 90 92 89 93 84 85 77 81 83 85 83 85 84 83 86 82 81 78 76 75 77 78 80 82 81 83 86 89 90 87 76
120 119 113 112 113 104 106 104 104 102 96 91 97 97 94 92 94 96 97 95 88 90 88 90 88 91 90 88 86 86 86 86 85 83 84 81 83 84 84 86 90 91 96 97 90 80 73
122 122 120 122 115 113 108 110 107 104 105 102 101 105 102 102 99 102 100 99 95 97 98 90 94 92 98 94 91 92 89 89 89 89 89 87 90 90 89 93 95 100 98 92 82 78 77
127 130 129 126 126 119 119 120 116 113 111 110 109 109 111 110 105 108 101 103 100 102 100 101 96 95 92 95 95 96 95 95 96 94 93 93 94 95 99 101 100 98 91 87 83 80 80
137 139 138 137 133 131 128 125 127 121 122 120 114 115 115 115 114 107 111 112 111 110 106 100 98 99 99 97 99 95 98 101 99 99 101 104 101 102 104 106 103 95 91 89 85 86 84
144 139 136 136 133 132 127 128 125 122 122 122 116 118 120 117 118 114 115 115 115 111 105 109 103 104 107 105 104 103 102 103 103 107 105 104 107 105 107 105 99 96 91 93 93 91 90
153 150 148 147 145 143 141 132 131 127 125 121 123 118 120 116 118 119 114 115 114 108 108 113 109 105 109 107 106 108 105 106 108 109 110 112 112 110 106 104 102 98 98 98 98 97 96
157 157 155 152 151 146 142 137 135 134 131 130 129 122 120 122 122 121 121 116 109 107 106 108 110 110 108 108 110 110 112 114 113 111 113 112 112 109 108 105 105 103 103 103 105 102 99
156 155 152 147 148 145 144 140 138 136 134 130 126 124 124 126 125 122 119 117 114 112 111 115 114 114 112 112 110 111 112 113 116 112 111 112 110 108 107 109 108 110 111 110 110 108 106
148 142 143 143 147 147 146 144 141 139 137 134 132 130 127 128 129 126 124 123 121 120 120 121 122 121 117 117 115 116 117 117 116 116 115 115 112 110 108 110 110 109 111 110 111 113 114
130 127 128 133 136 138 140 144 144 145 142 141 137 136 133 134 135 130 124 126 127 128 125 125 124 122 121 121 121 121 120 120 121 122 121 120 118 114 114 114 111 113 108 109 109 106 107
118 113 116 121 124 123 127 130 136 139 142 144 141 138 138 139 137 134 132 130 130 128 127 126 126 124 124 126 125 125 127 127 125 124 123 122 120 116 115 118 118 111 106 99 92 90 86
107 103 99 105 109 112 115 123 120 126 131 130 132 137 140 138 137 137 135 134 131 130 133 133 132 131 129 126 127 127 125 124 126 126 125 122 120 119 117 114 108 100 93 86 86 86 83
91 88 90 94 97 99 103 112 109 119 117 117 120 120 124 124 125 131 132 128 130 127 130 131 131 132 131 127 128 127 129 129 126 125 124 122 118 112 104 100 102 97 90 86 86 82 82
75 78 82 84 89 93 94 98 105 106 111 104 109 105 105 112 114 115 115 117 119 118 117 119 116 118 119 116 117 118 117 114 111 110 108 106 105 101 92 93 91 84 76 77 79 76 77
66 72 75 75 83 89 91 92 95 96 95 98 96 95 95 97 99 101 101 107 108 108 107 106 105 105 103 105 104 101 100 100 96 94 94 93 92 89 81 85 81 75 70 71 69 70 72
65 69 71 72 75 82 83 83 87 85 86 86 85 85 85 86 90 92 94 95 96 98 98 96 97 96 99 98 96 94 90 86 84 83 83 81 81 80 73 75 73 65 64 62 63 63 66
60 62 66 67 68 69 68 70 74 78 79 79 80 80 73 75 79 81 83 86 87 86 87 88 91 91 92 90 88 84 80 76 75 75 74 75 74 73 68 66 62 49 56 59 60 58 58
50 54 55 58 61 62 61 63 66 69 73 71 75 70 70 64 63 71 73 76 78 78 79 81 83 84 82 79 78 71 72 72 68 66 67 68 68 70 61 59 56 45 53 52 56 49 51
42 45 48 50 52 55 59 60 58 62 66 68 64 64 62 58 59 59 64 66 70 72 73 73 74 76 73 71 70 68 66 67 58 60 63 64 66 63 57 55 45 42 49 51 46 45 42
36 38 41 43 45 47 50 52 56 60 63 65 60 52 55 47 45 46 55 62 67 67 66 65 66 65 66 65 67 65 57 59 50 55 59 59 60 58 54 49 41 44 45 43 40 37 37
30 32 33 36 39 40 42 44 48 52 55 54 50 48 44 35 33 46 57 60 61 62 62 62 61 61 60 61 66 58 48 49 51 53 53 50 52 53 45 41 37 40 39 38 36 35 34

GFSGBSN_250_spd_135.txt.gz
Wind_Speed
93 92 88 87 87 83 84 84 82 83 82 78 73 73 73 69 71 65 65 63 67 69 75 75 75 73 71 73 68 67 69 64 63 59 59 60 58 61 61 60 60 63 61 60 57 55 54
93 91 91 88 88 90 82 90 86 87 81 78 76 74 73 75 70 67 71 64 63 66 69 73 76 74 68 66 66 64 62 61 59 56 59 58 59 62 64 66 64 64 62 60 55 55 51
89 91 89 90 87 87 84 83 85 86 83 83 80 77 78 75 74 71 69 67 64 63 64 71 70 70 63 61 61 60 59 60 59 60 61 65 63 62 64 64 65 62 63 63 58 54 55
100 95 94 91 91 86 86 86 84 88 87 84 82 83 80 77 76 72 66 66 64 63 62 63 61 55 63 60 61 60 65 63 65 64 61 60 64 67 67 69 69 66 66 66 62 63 61
97 93 98 96 95 92 88 86 88 88 86 82 84 82 77 77 77 76 74 73 71 70 66 62 65 64 65 68 69 69 63 70 71 64 64 66 68 70 73 76 69 64 62 61 62 61 66
106 100 103 101 97 98 94 93 89 94 88 88 89 86 80 79 82 80 78 80 74 72 77 72 68 73 74 76 80 72 65 67 65 69 72 72 72 73 74 75 70 68 65 63 65 65 62
109 110 103 104 103 98 105 100 101 95 91 89 86 87 86 89 89 86 85 79 82 79 76 81 82 80 80 86 79 74 71 73 78 79 75 76 77 79 80 76 74 71 70 66 67 71 72
114 117 114 109 112 111 106 104 101 97 94 94 98 99 98 94 96 95 89 82 87 76 79 78 84 82 80 79 75 78 81 82 82 84 84 85 86 81 78 80 79 78 76 74 74 74 75
121 120 118 117 118 117 116 108 108 105 99 98 98 96 93 95 96 92 89 87 84 84 78 84 85 85 81 80 83 85 85 87 86 90 87 86 90 83 84 82 82 81 81 80 78 81 80
123 122 123 121 123 121 117 116 113 111 107 106 102 98 100 96 94 95 92 93 95 88 86 89 89 88 89 89 91 93 90 91 93 94 97 93 93 90 83 85 86 84 86 85 87 85 87
127 126 125 125 124 125 124 120 119 115 116 111 111 110 104 100 98 96 99 98 98 94 98 94 88 94 94 95 92 95 96 98 95 97 100 100 95 95 91 87 89 87 89 91 89 90 90
137 131 131 128 129 129 131 126 125 122 119 122 119 113 108 105 105 103 105 104 104 104 101 100 97 98 102 100 101 102 100 99 102 103 101 103 97 98 98 95 95 95 96 100 99 101 98
149 139 137 136 135 136 135 129 129 127 125 123 127 123 119 113 109 113 113 115 114 111 109 109 103 104 109 107 107 105 104 106 109 107 105 104 104 106 102 98 97 97 99 102 104 105 104
146 143 139 140 139 137 138 137 133 132 132 131 133 131 127 122 122 119 119 121 117 106 114 115 110 108 110 114 112 109 110 113 113 110 112 108 110 106 105 101 104 106 104 104 107 107 106
151 148 144 141 141 141 139 141 139 135 131 133 135 133 128 129 130 125 121 120 111 113 115 113 111 107 111 116 111 105 110 110 113 109 109 110 105 102 101 101 101 107 109 108 109 108 109
160 156 153 148 146 146 144 141 141 137 135 132 129 132 129 130 129 130 126 119 116 119 115 110 111 115 113 114 112 111 113 111 113 106 104 106 104 110 111 100 102 107 108 107 108 112 109
152 153 155 155 153 150 148 144 144 140 138 140 139 135 133 133 126 127 129 116 118 121 116 120 117 115 114 114 117 117 117 118 115 110 113 112 110 108 117 109 107 110 110 114 116 114 114
135 138 146 149 150 154 154 152 152 152 152 148 148 145 143 144 146 140 133 131 129 124 121 119 118 123 120 116 122 121 121 124 121 115 118 120 116 112 116 114 115 114 117 118 117 119 117
116 120 128 134 139 141 146 148 149 152 156 151 151 151 148 148 147 139 136 133 132 128 129 129 126 125 125 124 123 124 127 130 124 127 123 125 122 120 115 117 120 124 118 119 120 119 116
106 111 118 119 123 123 123 131 138 141 144 143 147 149 148 147 146 143 140 138 137 133 135 134 133 132 129 130 131 128 128 132 132 133 130 132 128 126 125 125 129 130 123 121 120 120 114
93 98 106 106 106 108 111 109 118 125 127 124 126 130 134 135 135 139 142 139 140 138 138 136 135 135 135 136 133 133 133 135 130 128 130 130 129 128 125 123 119 119 114 105 106 105 103
86 87 93 95 92 97 98 99 105 110 112 116 114 116 112 120 118 119 124 124 128 131 131 131 132 135 139 138 137 137 137 134 129 129 131 132 126 126 116 108 108 108 95 94 96 90 90
77 79 84 83 84 83 86 91 97 101 101 105 106 108 107 110 102 108 108 113 114 115 114 114 115 119 121 126 126 125 129 127 126 123 119 115 111 109 101 102 100 91 85 88 83 80 80
68 68 72 72 76 78 81 85 87 88 95 96 96 102 102 97 89 88 102 102 102 104 105 104 104 105 108 108 108 107 105 104 104 104 103 100 99 99 94 94 91 79 78 78 76 73 72
60 61 63 66 67 71 71 76 84 83 90 88 93 91 90 85 80 78 81 89 93 94 92 94 95 97 95 93 95 95 93 91 90 90 91 92 91 91 86 81 77 66 65 76 67 60 65
52 56 57 62 65 68 67 70 76 79 82 84 85 83 79 76 73 70 70 76 81 82 83 83 84 83 84 85 83 82 80 79 78 80 81 80 81 82 74 71 68 58 63 65 63 46 59
45 49 52 55 59 59 61 63 68 72 73 76 75 71 67 66 68 67 62 69 72 73 74 76 77 77 78 77 76 72 72 75 72 74 75 74 72 69 67 66 59 56 54 56 55 50 49
39 42 45 48 50 51 52 55 59 62 65 69 68 67 66 64 63 55 54 59 64 69 70 70 69 68 71 71 70 69 68 72 70 67 68 62 63 61 64 61 53 50 49 47 48 48 44
33 35 38 41 43 45 47 49 51 54 58 62 63 64 62 55 50 51 46 51 58 62 66 65 65 66 65 65 64 66 64 64 60 55 57 50 58 55 59 54 49 44 43 41 42 38 39

GFSGBSN_250_spd_138.txt.gz
Wind_Speed
94 92 89 88 86 83 87 84 88 87 84 77 75 76 75 77 72 68 72 66 66 64 63 61 63 63 64 68 65 69 68 70 66 63 64 62 60 56 56 53 52 55 56 56 60 58 60
96 94 89 87 89 89 88 84 86 82 88 80 77 75 76 76 78 75 67 70 65 67 68 62 62 64 63 63 62 66 67 69 69 63 60 59 59 57 56 53 55 55 60 57 57 57 59
98 94 94 90 89 91 90 84 83 83 84 81 80 76 74 75 75 73 68 66 67 67 67 67 63 56 57 60 60 61 63 64 57 50 46 50 53 57 56 56 58 58 57 57 61 62 66
92 97 98 99 89 93 90 88 82 83 79 82 82 79 76 74 73 73 69 74 68 68 63 64 64 61 62 60 56 59 55 51 57 55 56 61 55 60 61 65 62 60 61 62 65 63 66
99 95 97 100 100 93 91 87 86 83 84 84 84 85 81 79 75 79 74 74 71 69 65 65 64 61 63 67 64 61 60 59 63 64 66 68 69 61 59 58 58 63 67 66 68 66 66
99 99 99 101 99 102 94 92 90 89 82 84 83 86 84 83 79 77 82 79 78 76 72 73 70 69 65 69 70 68 68 68 69 69 72 74 67 61 64 65 64 70 73 73 73 74 69
99 101 103 102 104 101 95 97 92 93 92 89 90 89 86 86 89 92 88 83 83 77 76 79 75 76 74 76 76 71 69 72 74 78 78 70 67 69 70 72 75 78 77 78 80 80 76
106 105 103 105 102 105 104 99 97 98 99 96 92 91 92 96 90 89 90 87 84 85 80 86 83 83 82 80 77 79 77 74 69 75 78 80 73 76 77 79 80 84 85 85 85 85 83
107 107 109 105 109 109 112 112 108 103 100 100 98 101 96 98 96 96 95 89 89 88 84 84 87 82 81 78 77 77 74 80 82 83 83 81 82 78 82 86 84 86 86 87 88 87 89
114 110 114 113 113 115 115 117 114 113 111 106 106 107 105 105 103 97 97 96 92 93 87 83 87 84 83 82 78 79 83 83 88 86 89 86 89 88 86 84 91 90 91 87 88 89 86
129 125 117 118 122 121 116 117 118 119 113 112 114 112 111 111 108 102 99 102 94 95 90 87 80 86 90 91 84 86 88 89 86 90 95 91 94 94 90 89 91 93 93 92 94 93 92
134 133 129 127 125 125 123 122 125 124 121 119 118 115 116 116 116 111 107 105 103 99 88 98 88 90 91 95 95 89 94 94 96 98 95 95 99 95 94 95 93 94 92 93 94 96 95
144 141 139 138 131 130 130 127 129 130 128 122 123 120 122 121 120 120 117 111 108 100 97 106 101 100 97 97 102 99 98 100 102 103 101 101 101 99 103 105 102 100 107 104 106 105 99
148 145 147 146 138 138 139 133 130 131 133 129 129 124 125 122 121 123 125 121 114 107 109 115 107 105 102 105 105 105 109 108 111 109 109 108 106 112 106 103 105 105 105 104 105 104 96
152 150 147 148 146 144 139 135 132 131 130 130 130 127 125 123 125 128 131 129 118 118 122 117 114 111 113 114 112 114 112 107 108 110 109 108 111 109 103 99 102 99 101 103 104 102 101
155 155 155 152 147 148 146 145 139 136 132 132 135 135 131 127 128 130 131 124 122 120 126 124 120 115 114 109 115 112 110 111 112 111 113 107 108 109 110 106 101 101 103 106 104 106 105
149 152 157 159 159 155 149 147 146 148 143 143 144 143 138 137 137 133 127 123 127 129 130 128 123 127 124 119 114 119 115 121 120 114 112 108 106 107 112 111 109 110 107 108 109 110 113
140 144 147 148 153 156 158 155 151 148 147 150 148 145 138 139 140 135 122 124 129 130 130 128 123 122 122 117 116 122 114 108 105 110 111 114 109 108 110 115 115 114 118 120 116 115 118
124 128 134 136 143 146 152 151 156 156 156 153 150 144 141 143 142 140 128 126 128 130 130 124 128 124 126 124 115 113 113 123 125 117 120 121 120 121 117 118 118 124 126 122 122 120 121
110 115 120 122 125 131 135 139 147 152 155 155 157 150 154 153 136 137 136 136 135 136 134 132 129 129 130 127 128 130 131 138 130 135 134 135 129 126 127 127 128 130 129 128 125 127 128
94 100 105 110 112 118 118 124 129 138 141 148 150 154 159 159 151 150 149 145 142 143 144 143 143 143 142 143 145 144 147 145 140 137 133 134 130 132 132 130 132 134 133 127 130 131 131
82 84 89 94 99 106 108 111 114 114 124 127 138 143 146 144 148 147 153 155 150 152 151 150 154 155 154 153 151 150 150 147 139 138 136 136 134 131 133 131 133 133 129 124 131 131 124
74 76 79 81 86 93 95 102 102 104 108 112 118 120 120 116 113 123 132 137 142 145 147 151 153 149 146 146 140 136 134 131 133 130 129 127 127 130 126 128 126 119 113 114 111 106 102
66 69 72 75 78 82 84 87 90 95 100 105 106 110 108 105 108 107 113 117 117 120 126 128 127 128 130 126 120 117 115 115 115 112 112 111 108 108 106 106 106 96 92 94 98 91 86
61 62 65 67 70 73 76 76 80 85 91 97 97 98 99 103 96 96 95 98 101 105 105 107 109 105 105 102 105 105 101 101 100 101 100 98 97 97 96 94 90 77 78 87 83 73 74
52 55 59 62 64 65 66 69 73 79 82 85 86 87 92 92 86 89 89 87 86 88 92 93 97 96 97 94 94 92 88 88 86 87 88 88 85 87 84 82 79 65 73 76 73 62 76
46 48 51 54 57 61 61 66 66 73 77 78 79 84 84 80 79 79 79 76 76 72 75 80 83 83 82 83 82 79 77 79 76 78 78 80 79 78 75 74 65 62 64 67 65 62 66
41 43 45 48 50 55 57 61 64 66 67 68 74 77 75 73 74 74 73 68 69 62 63 71 71 68 71 73 72 71 68 70 70 70 71 73 72 67 68 67 59 61 58 59 59 57 54
35 37 40 42 45 48 49 53 56 57 59 62 66 69 70 67 68 66 62 62 62 59 60 59 63 65 65 66 66 65 61 61 63 61 64 62 61 58 61 56 59 57 54 52 51 48 47

GFSGBSN_250_spd_141.txt.gz
Wind_Speed
89 86 85 86 90 86 87 87 87 85 85 84 82 79 77 81 81 82 78 76 68 69 68 72 64 65 62 60 59 60 56 54 55 60 62 65 61 61 63 57 52 55 55 53 47 44 48
93 91 91 89 91 91 92 89 88 84 86 84 82 81 79 78 79 76 77 76 68 65 68 65 62 61 60 56 58 59 54 52 52 56 59 59 58 57 49 49 42 43 50 51 49 48 44
86 97 94 98 94 97 93 91 88 84 85 84 80 80 82 78 77 75 77 75 72 65 64 65 62 59 57 59 60 57 55 55 51 52 53 51 45 43 42 43 46 49 49 52 55 50 49
94 93 96 98 101 98 97 90 88 88 82 81 81 78 77 77 76 71 70 72 70 68 65 59 62 59 58 57 57 56 54 54 55 53 53 50 46 52 51 54 54 54 56 50 52 50 49
91 95 92 95 96 93 92 93 89 88 86 86 80 80 76 75 77 75 73 71 71 68 68 66 59 61 62 59 61 62 58 60 59 59 56 55 56 60 61 61 60 62 53 51 55 58 59
99 96 91 87 92 92 93 91 92 91 90 91 85 80 81 78 77 75 75 75 71 70 66 62 63 65 63 68 67 66 63 65 62 66 65 62 61 58 62 64 61 59 60 62 61 62 63
93 95 96 93 92 94 94 95 96 98 95 93 94 87 86 84 83 78 77 77 74 70 67 68 64 65 64 67 68 73 69 69 68 69 69 66 65 70 69 61 59 64 66 68 73 74 70
108 98 99 99 99 97 98 98 96 94 97 99 97 94 90 87 85 82 79 80 78 76 72 70 73 65 71 74 69 73 75 71 70 69 70 67 66 71 68 70 70 69 72 73 75 78 80
103 104 102 102 98 104 102 100 98 96 96 101 101 100 96 95 96 91 86 84 81 85 77 74 78 74 78 75 72 78 77 79 77 72 75 70 68 71 69 71 74 77 78 79 79 81 84
112 107 112 113 103 102 104 104 106 107 104 100 103 105 105 104 104 98 96 93 89 90 86 75 80 79 83 86 78 86 80 78 78 76 79 72 76 77 75 76 77 79 83 83 83 83 83
125 125 125 121 112 105 107 108 109 109 109 105 106 109 108 112 106 104 104 102 98 97 90 89 83 87 88 89 84 80 87 78 79 84 83 79 81 85 83 80 81 81 89 87 87 88 86
133 127 124 118 119 123 122 115 109 111 112 106 108 110 111 112 115 107 108 108 106 104 98 100 96 97 94 95 93 89 88 87 85 85 86 83 87 86 87 90 91 90 90 91 93 97 95
138 133 131 128 130 125 125 123 124 119 115 116 110 109 108 111 116 110 116 113 112 108 108 112 104 103 100 101 101 95 94 93 90 90 92 95 91 96 94 91 96 98 101 103 104 105 100
144 144 141 136 136 135 130 129 130 131 130 125 125 122 118 120 119 120 121 119 115 111 115 121 114 110 108 108 108 105 98 97 96 96 98 98 99 100 102 99 104 103 109 109 107 105 103
144 145 146 147 143 144 142 136 135 133 134 134 136 132 131 126 126 126 122 121 116 115 117 121 115 114 112 109 111 112 107 107 105 104 106 105 102 104 103 102 99 102 104 105 109 109 108
148 146 145 147 149 146 148 146 140 141 141 143 141 133 132 133 131 128 129 119 117 121 126 122 118 117 117 117 118 118 114 115 115 108 111 106 108 108 105 102 104 106 109 111 114 108 104
143 144 146 149 149 148 150 148 146 147 150 151 145 143 132 137 137 132 125 118 123 124 128 124 119 117 119 120 121 122 121 119 119 119 114 110 111 113 114 113 108 109 110 112 105 107 106
139 140 141 143 146 150 151 153 156 151 147 149 154 151 144 140 144 139 130 123 123 121 128 126 124 120 121 124 127 124 125 125 119 119 117 120 121 116 113 109 107 110 101 94 103 108 117
124 128 131 135 137 142 146 153 155 157 159 153 153 149 152 147 147 142 135 133 130 131 135 132 127 125 127 127 129 129 130 132 121 121 121 121 110 104 105 109 111 109 110 116 120 124 130
108 113 115 119 124 128 134 138 145 149 153 158 160 161 158 157 151 142 134 137 140 139 138 138 134 132 133 134 137 139 133 134 123 120 111 118 110 117 112 115 114 123 129 134 129 137 142
97 100 103 107 111 117 120 128 131 134 140 145 154 157 155 155 154 153 150 148 142 141 143 146 144 135 133 133 135 135 127 129 121 123 119 123 123 125 124 124 128 133 138 136 140 146 150
87 90 93 94 99 104 107 111 117 123 130 137 141 141 139 140 143 147 154 153 152 151 155 149 150 140 143 143 142 142 143 137 137 132 129 134 131 136 139 136 141 144 141 144 147 134 131
77 79 81 84 87 90 93 98 103 108 112 119 124 125 129 126 128 131 133 138 142 151 153 152 155 152 151 148 145 144 140 139 138 136 135 137 138 141 141 147 152 147 143 147 134 120 117
69 72 74 76 79 82 84 86 89 95 103 106 110 113 117 115 114 106 115 122 125 127 135 137 141 146 147 146 146 146 147 141 146 150 153 149 146 150 144 140 136 121 119 114 110 106 106
61 63 63 66 71 74 77 79 80 84 89 95 98 100 102 104 105 102 104 106 108 108 111 116 121 123 126 128 129 134 140 134 132 138 131 125 125 122 121 116 109 95 99 103 100 86 87
51 54 57 59 62 66 69 72 72 77 80 82 87 89 93 93 96 94 94 95 94 96 96 95 94 100 102 98 103 107 103 105 109 105 106 108 109 105 98 97 93 80 89 89 89 69 78
44 46 49 53 56 61 63 63 67 71 72 74 78 79 82 84 85 85 85 87 87 83 85 85 80 82 88 89 87 87 88 92 91 92 92 94 94 91 86 84 75 70 74 77 76 68 68
39 40 42 46 50 53 56 58 62 66 64 68 73 74 73 73 77 76 79 76 74 75 78 72 72 73 73 73 75 76 77 80 78 77 77 79 79 78 76 72 60 65 67 68 66 64 63
34 35 37 39 42 46 49 51 56 59 61 65 66 66 65 68 71 69 70 70 68 72 68 65 66 60 59 58 65 67 67 68 69 65 68 67 69 67 67 62 60 59 60 61 59 58 58

GFSGBSN_250_spd_144.txt.gz
Wind_Speed
82 80 82 87 86 86 85 86 86 83 83 81 82 78 77 79 80 78 76 75 76 72 71 73 73 68 69 65 61 58 62 61 55 50 51 53 48 49 50 46 50 52 48 47 41 39 40
87 89 88 85 89 90 92 90 87 86 84 82 81 83 83 83 82 82 80 77 76 76 72 66 68 69 67 66 61 62 58 55 54 56 54 50 48 47 44 47 45 40 39 36 36 41 42
91 92 96 92 94 94 95 94 92 89 90 88 89 86 83 86 83 79 79 78 75 71 71 71 67 66 67 66 62 64 60 59 55 55 57 53 49 43 48 45 40 35 42 48 49 50 43
87 87 93 95 94 96 100 95 94 92 87 89 88 91 91 90 86 81 76 76 73 65 63 63 62 63 66 63 58 59 55 50 50 53 53 51 50 49 47 47 46 46 47 51 53 52 49
90 91 92 96 94 96 93 93 94 95 93 87 93 92 86 86 82 74 72 69 69 64 63 61 61 61 60 61 57 56 57 56 53 55 56 58 60 56 52 53 52 53 49 52 54 52 51
98 96 98 95 100 99 98 97 94 96 93 94 89 87 87 85 80 78 70 65 64 64 60 58 61 56 57 59 59 57 55 53 59 57 56 55 58 60 59 54 55 56 54 55 58 58 55
102 101 103 99 100 101 99 100 99 94 96 96 89 86 82 79 77 79 76 77 67 64 61 62 63 64 59 61 59 63 58 59 55 58 57 55 56 61 61 59 61 57 54 55 59 59 57
114 108 100 108 97 99 98 101 95 99 97 94 89 89 85 85 81 82 84 79 78 72 67 65 61 60 68 63 57 63 65 65 61 60 60 59 62 68 62 62 64 64 60 59 60 66 61
109 116 109 106 107 100 104 105 102 97 99 96 91 90 93 91 90 88 88 84 81 82 79 69 72 68 71 70 59 69 67 69 66 65 65 64 66 69 67 66 63 64 66 65 67 69 71
114 118 114 112 111 107 109 108 104 104 101 98 101 94 96 93 95 96 94 90 86 87 83 76 76 74 77 80 69 72 73 72 70 71 73 67 72 74 74 69 71 68 72 72 71 73 74
118 118 113 114 115 110 104 104 106 102 100 106 101 98 96 97 97 98 97 94 95 93 91 83 81 79 82 86 79 75 80 76 75 79 80 74 77 78 78 77 78 76 80 79 78 76 76
123 122 118 117 114 114 113 108 107 109 106 109 108 108 104 102 100 98 94 94 101 101 97 91 89 89 86 84 84 81 85 87 84 86 88 83 84 81 84 84 83 82 83 82 85 85 82
129 128 128 125 124 121 121 120 119 120 118 115 111 110 109 105 103 102 98 100 103 101 101 99 96 95 93 91 90 89 92 92 93 93 95 94 88 89 90 88 86 86 86 89 91 91 90
136 137 138 134 133 136 130 129 127 128 125 123 118 119 120 112 112 111 108 106 103 96 101 106 101 102 98 100 103 100 101 100 100 99 97 96 92 95 95 92 90 89 93 96 102 102 97
149 147 147 145 141 141 140 141 135 131 133 131 130 129 130 123 123 122 121 119 106 105 109 112 110 111 106 108 114 110 110 106 104 103 100 98 93 93 93 96 97 99 103 102 105 102 101
147 146 146 144 143 144 141 142 141 138 135 138 135 134 133 134 131 126 125 121 114 117 120 116 117 114 114 115 117 117 117 112 109 111 111 107 103 103 101 102 106 108 108 107 110 113 111
146 147 147 147 147 145 144 144 144 145 143 143 144 142 137 138 137 136 127 124 124 126 128 125 126 123 118 117 118 120 123 118 113 113 116 114 111 109 110 107 108 111 113 113 113 115 111
145 148 145 147 150 149 149 148 149 151 150 150 148 150 142 140 144 144 133 130 129 128 135 127 129 128 126 123 122 124 121 122 123 121 117 120 119 115 115 113 112 116 117 116 116 118 118
134 136 139 141 142 143 144 148 151 155 155 157 158 159 156 152 152 145 139 139 130 130 134 127 123 125 130 129 127 128 126 128 125 122 122 120 120 115 113 115 114 115 116 114 119 120 116
120 121 125 128 129 132 138 137 144 148 152 155 158 158 158 161 163 154 150 145 136 133 138 135 132 132 132 134 131 127 130 130 126 122 124 121 119 121 118 115 118 120 121 123 119 118 123
102 106 109 111 113 114 121 123 128 135 140 144 144 151 149 154 149 153 148 153 142 134 140 144 145 144 137 138 135 132 134 136 129 128 130 132 127 132 127 114 115 121 112 114 116 121 131
86 89 94 97 99 102 103 104 111 117 123 127 129 136 139 135 139 142 142 142 141 146 147 147 151 145 147 143 143 144 142 137 132 133 137 138 133 132 135 132 128 125 123 128 131 133 137
76 78 78 80 84 87 91 94 96 100 106 108 112 115 118 123 125 130 131 126 133 137 136 142 149 150 149 146 149 146 145 143 143 141 141 140 137 136 136 136 140 138 128 135 133 134 139
69 71 73 73 74 77 81 84 87 91 95 96 98 102 107 109 110 112 110 114 119 126 129 130 131 133 137 141 140 143 141 139 141 143 142 143 145 148 145 148 150 147 145 141 142 144 142
63 64 66 68 69 71 73 76 80 83 85 85 88 92 97 100 102 100 101 102 111 111 114 116 118 121 128 127 127 127 125 123 122 126 127 128 131 136 139 136 128 122 125 120 124 112 112
54 57 59 61 63 64 66 70 73 75 76 78 81 86 89 91 88 89 92 97 100 99 102 99 102 107 107 104 102 104 104 103 103 105 107 110 109 108 107 110 104 94 102 107 107 88 91
47 49 50 52 55 58 62 63 65 66 67 71 73 74 78 82 81 83 86 87 90 92 91 88 89 90 93 91 87 86 89 89 87 88 92 95 96 94 92 89 84 82 85 88 87 79 80
40 43 44 46 47 50 54 57 59 58 60 63 66 69 72 74 72 75 75 76 80 82 77 77 80 78 78 77 76 74 75 78 81 81 82 85 87 85 84 82 72 73 74 75 75 72 71
33 35 37 40 42 44 46 48 50 53 55 57 60 63 65 65 64 65 66 67 71 70 70 70 70 69 66 63 62 66 65 69 74 73 75 73 75 75 72 68 65 63 64 66 65 65 64

GFSGBSN_250_spd_147.txt.gz
Wind_Speed
86 84 77 75 78 80 82 84 85 84 85 82 81 78 80 81 80 82 82 83 82 78 77 73 74 71 68 66 70 65 65 68 69 65 60 61 59 60 55 51 52 52 50 46 46 46 43
92 90 90 91 90 88 79 79 83 83 84 82 84 81 82 83 83 82 82 84 83 83 80 75 71 70 68 70 67 67 66 63 60 61 63 63 58 55 56 50 51 50 49 48 44 36 38
97 94 95 92 89 86 85 88 85 88 87 87 85 83 84 85 87 86 84 82 83 81 78 77 74 69 66 71 66 67 65 65 63 62 63 56 55 50 50 49 49 48 47 49 44 40 44
100 100 97 97 94 86 89 91 90 90 89 93 91 89 88 88 87 90 86 83 81 83 82 78 76 71 66 67 62 63 61 61 57 57 54 54 53 49 46 47 53 53 54 53 51 51 50
106 106 104 104 100 97 92 92 97 90 89 91 97 95 91 88 89 87 87 86 83 80 81 77 72 65 62 61 60 57 57 55 53 55 54 53 54 55 51 49 49 53 51 50 51 51 54
108 110 106 105 104 102 98 94 96 95 93 92 93 92 90 86 87 87 84 87 85 78 79 73 68 55 55 56 53 56 57 53 53 53 51 51 49 51 53 52 52 50 45 48 50 51 52
108 107 110 106 109 107 108 105 97 97 101 94 93 89 92 94 91 90 88 85 85 83 79 72 68 56 55 58 55 55 56 55 57 55 55 53 50 52 57 54 52 51 49 52 53 53 53
110 114 110 111 108 112 110 104 100 100 99 96 93 90 93 92 93 92 92 92 87 84 74 66 68 72 64 58 56 58 56 54 57 61 59 56 50 58 59 56 55 54 53 53 59 60 51
121 121 118 121 120 120 112 109 102 103 100 102 98 100 99 92 94 91 92 92 95 90 85 68 69 68 68 67 59 62 62 63 63 58 62 59 61 63 61 60 58 59 58 61 61 63 65
126 124 124 124 119 117 114 114 106 108 108 100 103 106 102 102 99 96 97 96 96 93 86 76 76 71 69 69 64 67 70 66 64 61 66 63 64 65 65 61 67 63 69 69 67 68 69
130 129 128 125 122 120 116 116 109 110 113 111 107 106 106 107 106 101 100 101 97 95 89 87 80 76 81 78 74 72 76 71 68 69 69 65 66 69 69 68 75 70 75 77 77 75 74
130 127 126 129 125 120 116 117 117 113 113 115 113 108 109 108 107 103 101 95 95 95 92 82 80 85 91 91 83 80 79 80 78 78 73 69 71 70 73 75 77 79 81 84 84 83 81
126 128 126 122 119 122 115 117 117 115 117 119 118 115 110 103 105 100 97 94 96 96 95 94 91 94 96 90 86 87 87 86 87 88 83 79 75 78 78 78 85 88 90 91 90 90 85
131 128 128 125 125 120 124 123 119 122 122 118 121 117 114 113 111 109 103 103 102 97 102 105 101 99 90 94 96 95 96 97 93 91 91 90 82 87 89 88 92 97 99 97 99 95 91
136 132 129 131 131 128 130 127 128 126 121 123 125 123 118 115 116 117 116 111 103 104 105 106 106 103 104 102 97 99 103 98 99 100 95 98 93 95 97 100 101 98 99 96 101 99 97
143 144 139 138 135 134 133 132 131 131 133 128 128 130 128 123 121 124 126 120 114 111 110 112 116 112 108 105 107 104 107 111 111 108 107 104 104 101 104 105 106 103 104 107 108 109 108
151 148 150 146 148 145 141 143 139 140 138 142 142 139 134 134 131 133 127 126 122 125 121 120 121 123 116 114 117 117 112 114 113 115 112 112 109 106 108 106 111 111 108 110 114 117 115
150 154 158 155 152 153 152 153 151 149 145 148 152 148 143 142 145 140 139 133 127 133 129 130 124 125 128 126 122 124 121 122 117 116 118 117 113 111 115 114 114 119 120 117 117 120 120
147 151 149 152 154 153 157 155 159 156 155 155 157 160 155 155 153 151 138 139 136 136 133 130 129 129 130 129 124 127 126 125 121 121 124 123 123 117 114 116 118 120 117 118 120 119 118
133 139 139 142 144 150 149 149 151 157 159 163 168 166 169 167 168 164 156 143 144 136 135 137 134 133 133 132 132 135 132 126 126 127 128 129 130 126 121 117 121 120 121 123 122 119 119
116 119 122 125 128 131 135 133 142 150 151 154 158 162 159 158 158 154 154 152 147 146 147 146 139 136 139 139 137 133 130 129 130 128 128 130 126 124 122 121 118 113 114 120 123 121 124
101 103 105 106 108 112 116 123 124 129 139 142 143 153 147 149 150 149 150 142 143 141 138 147 147 151 149 146 143 143 137 137 139 139 137 130 134 132 128 125 136 140 133 134 135 129 134
84 87 88 90 92 95 97 99 106 112 114 115 118 124 131 127 128 130 134 129 124 133 131 130 137 147 144 141 145 147 148 148 141 138 137 139 138 137 135 131 133 140 136 136 133 133 138
74 75 77 78 80 83 85 87 90 95 98 101 103 106 108 110 116 115 117 110 112 116 118 117 122 123 122 128 127 127 130 127 129 131 136 134 132 137 132 138 143 136 135 134 134 131 129
66 68 69 70 71 72 73 76 79 82 86 87 90 95 97 97 97 100 102 105 102 102 104 105 105 106 110 110 112 113 113 116 119 125 126 129 128 128 132 135 130 114 118 118 119 112 113
58 61 62 62 64 65 66 67 70 73 75 75 79 83 87 88 84 87 91 95 89 91 92 93 96 95 95 96 96 98 102 106 108 109 111 113 112 115 118 114 108 101 101 103 104 94 89
52 52 53 54 55 56 59 61 63 65 66 67 70 75 78 74 74 81 83 86 85 84 84 84 83 85 84 86 88 88 90 95 94 94 95 99 99 97 97 97 93 85 90 91 89 82 83
44 45 46 48 49 50 51 53 55 58 59 59 62 67 67 62 68 73 73 76 76 76 77 79 78 76 77 78 78 77 78 79 77 77 80 81 82 84 84 85 80 81 80 80 78 75 73
37 38 39 40 42 44 46 48 48 50 51 50 57 61 59 59 61 65 66 67 67 70 71 71 71 71 71 70 69 70 65 63 65 66 70 72 74 75 75 75 75 73 69 68 68 67 68

GFSGBSN_250_spd_153.txt.gz
Wind_Speed
92 92 86 84 82 82 78 79 77 80 75 78 81 78 80 82 84 75 72 67 61 64 68 69 70 68 74 80 80 76 79 76 76 77 77 73 75 75 72 69 59 60 61 60 58 56 53
93 94 94 94 88 86 84 78 79 81 79 78 81 83 85 85 86 86 76 73 63 63 65 68 71 70 67 72 75 76 74 72 72 72 73 75 75 75 74 71 63 59 60 59 58 55 54
100 99 100 99 99 95 90 91 87 84 86 83 83 81 79 85 88 87 87 81 79 75 76 71 72 70 68 73 75 75 73 73 69 72 76 77 72 70 68 68 65 56 57 58 58 57 51
104 102 103 104 103 101 98 96 96 85 90 94 86 88 90 85 79 79 86 83 81 79 76 74 76 76 76 74 71 73 74 74 69 70 67 69 69 68 66 56 53 54 54 57 56 48 46
103 106 104 106 104 102 100 101 100 100 89 96 96 91 90 93 93 87 82 79 79 80 79 78 75 74 74 79 80 76 71 69 70 67 66 62 61 60 55 54 54 54 52 53 52 50 46
108 106 108 105 108 110 107 103 99 98 98 97 100 98 97 95 98 99 92 90 86 85 82 81 79 78 76 78 76 78 73 65 64 64 63 66 58 52 57 52 50 51 51 50 53 52 48
117 117 113 111 112 110 111 111 109 105 98 99 99 103 96 97 93 92 89 96 92 92 88 87 81 81 82 83 81 78 72 66 64 61 60 60 54 53 57 56 53 49 51 53 56 54 50
121 120 117 109 108 110 112 115 113 107 102 106 101 102 100 98 95 95 88 95 90 86 84 85 88 84 85 84 75 77 77 72 66 63 63 58 56 58 57 61 57 53 56 55 57 56 51
122 117 117 115 116 115 114 116 116 116 106 107 107 106 104 99 97 97 98 93 94 92 90 85 85 81 85 83 84 85 82 80 76 71 65 62 60 63 62 61 64 63 60 63 61 64 60
125 122 122 118 122 118 118 116 114 113 115 111 111 107 106 100 102 101 98 98 97 98 91 86 91 85 85 91 92 96 94 90 86 80 76 71 67 66 68 65 68 68 65 63 64 64 65
128 126 126 121 124 125 123 120 117 120 116 112 111 108 109 112 105 106 104 104 103 102 99 96 90 90 93 96 97 98 98 92 88 88 82 76 71 71 73 70 72 67 70 68 69 66 66
132 131 129 132 126 128 125 123 124 123 119 118 116 116 112 115 112 111 112 107 110 105 101 97 94 102 104 104 101 97 93 90 91 90 87 80 80 75 72 73 78 78 73 73 76 78 70
141 139 134 133 133 132 129 125 128 126 125 126 123 123 119 117 118 116 117 117 114 109 108 109 112 108 105 103 100 94 92 91 90 89 88 86 82 78 75 74 77 80 77 81 83 85 78
142 142 142 140 137 133 132 129 128 130 128 129 127 127 126 124 121 123 123 124 120 115 116 113 110 111 108 105 104 100 94 90 85 85 89 86 83 84 82 81 82 80 81 80 85 87 83
151 147 146 145 144 140 137 134 133 133 135 133 127 126 126 131 130 126 128 129 119 116 117 114 111 113 104 100 94 94 93 91 89 86 89 88 86 82 85 85 85 86 85 88 93 92 89
150 148 150 148 147 146 144 145 145 145 140 136 140 137 132 133 125 124 128 127 122 119 117 116 113 110 106 106 103 98 92 92 89 88 90 89 87 87 86 89 90 89 94 97 97 98 103
151 148 149 150 150 148 146 145 144 146 146 147 147 143 135 136 132 130 129 120 118 117 116 111 111 112 111 105 104 106 99 95 93 94 96 95 92 89 91 94 96 96 97 102 103 106 108
144 148 149 146 147 151 152 151 149 147 148 150 149 149 147 147 153 151 145 134 129 121 117 118 108 107 110 113 109 105 105 105 104 101 98 100 100 98 101 101 100 102 106 108 109 104 109
136 142 144 145 145 147 148 151 154 156 156 154 153 155 153 152 154 152 148 141 134 130 131 128 122 118 115 116 111 115 108 108 107 106 110 109 108 107 108 109 110 110 109 108 106 107 111
122 131 136 141 145 146 147 148 148 150 151 154 159 164 153 159 157 156 153 159 151 141 136 134 130 124 124 119 119 116 114 117 116 118 115 114 116 115 117 119 117 112 107 104 104 113 107
107 112 118 125 126 131 131 136 140 145 147 147 151 154 155 160 161 155 154 153 150 146 142 140 138 133 128 129 124 121 124 126 123 122 124 122 122 120 120 121 122 122 119 122 124 127 128
95 99 103 108 113 116 120 123 128 131 130 134 137 142 145 148 150 151 147 141 143 142 142 143 136 136 136 131 130 131 132 131 127 129 129 129 127 129 133 135 136 131 129 131 134 134 133
84 88 92 95 98 103 107 110 114 117 117 120 123 125 129 128 133 137 136 134 132 130 131 134 133 135 134 131 131 132 131 128 129 131 135 135 135 139 139 138 135 131 132 137 132 134 141
72 75 79 83 86 90 93 96 97 100 102 104 109 111 115 114 122 122 123 121 118 125 121 120 118 121 120 123 121 118 121 123 124 122 127 126 122 129 128 132 126 122 121 128 133 127 129
61 64 67 70 73 76 79 83 86 88 91 94 97 100 103 101 106 106 112 117 117 116 115 115 118 115 114 109 110 114 108 111 109 114 117 115 112 115 117 119 117 108 110 115 116 113 111
54 56 59 62 65 67 70 73 75 78 80 83 86 90 91 92 90 96 100 100 103 100 106 105 105 103 105 101 98 94 94 92 98 100 94 95 98 100 104 103 102 89 99 104 104 97 103
48 51 53 55 57 60 63 65 68 69 71 72 76 78 78 75 77 86 84 89 90 96 96 99 99 96 96 93 92 85 79 81 83 82 84 89 87 89 90 94 90 88 92 93 93 94 95
43 46 48 50 52 54 55 57 59 60 62 63 68 70 68 65 70 74 76 75 80 83 88 90 88 88 89 86 82 80 76 71 69 70 76 79 80 80 81 83 81 82 83 83 82 83 85
35 38 41 44 46 48 49 51 52 53 54 55 58 60 58 57 65 66 68 68 73 77 77 79 79 79 79 77 75 72 70 64 62 61 64 67 72 72 72 71 73 77 76 76 76 77 75

GFSGBSN_250_spd_156.txt.gz
Wind_Speed
86 86 86 84 83 85 83 84 89 84 86 86 87 87 84 82 74 74 73 77 74 73 73 75 73 69 63 59 61 60 61 64 64 64 65 64 63 62 62 61 60 61 63 64 64 62 59
87 93 90 87 89 88 85 86 84 83 90 85 79 75 74 79 79 76 77 73 74 73 75 74 79 76 70 70 71 70 65 63 64 66 70 73 68 67 63 58 58 58 61 64 62 56 58
87 95 96 92 91 92 95 88 88 90 89 81 83 85 80 75 70 72 76 77 79 77 74 69 76 78 73 77 75 75 70 68 69 67 71 71 71 66 64 57 60 59 60 60 62 55 45
93 97 103 103 96 97 99 101 96 94 90 91 88 87 81 82 81 77 77 84 78 79 73 64 64 71 66 74 68 71 70 69 71 67 70 65 65 64 56 55 57 56 58 64 48 41 46
99 99 96 101 101 102 103 100 105 102 97 95 94 94 94 89 88 88 83 80 84 83 85 82 82 81 73 77 72 72 74 72 73 70 72 69 73 66 58 56 53 52 52 48 43 42 47
100 101 101 94 101 102 104 101 100 99 101 100 99 97 98 96 93 91 86 80 80 86 90 84 84 84 83 86 85 79 80 77 76 77 75 69 65 62 56 57 52 46 42 44 51 47 49
106 107 102 103 100 103 102 102 103 101 98 97 98 98 100 99 96 96 92 92 84 84 88 90 84 85 80 79 77 80 78 75 74 74 73 73 68 68 64 61 54 53 47 44 51 50 50
109 112 112 109 107 110 107 104 105 102 101 101 97 97 100 97 96 95 95 96 88 88 84 88 84 82 88 82 79 76 75 72 72 76 71 70 66 72 74 71 65 57 56 55 55 51 49
113 114 116 114 114 116 117 114 109 109 110 105 106 106 104 101 98 100 99 100 95 94 90 88 88 85 86 82 81 79 79 78 76 77 75 74 74 78 79 77 76 72 64 66 61 59 52
125 125 122 118 123 120 121 122 117 119 114 117 108 111 108 106 103 101 99 100 102 99 95 90 91 89 89 83 81 86 83 83 83 81 83 78 80 81 81 80 76 74 74 70 69 66 63
129 129 130 125 125 127 123 121 123 123 118 117 117 114 116 115 112 107 103 105 101 101 97 97 96 91 92 90 89 89 89 89 87 91 89 85 85 86 87 85 84 81 79 79 73 69 66
136 135 134 131 125 126 125 124 124 127 122 120 120 121 119 123 116 113 114 107 110 109 94 94 91 95 94 95 96 97 97 95 91 90 90 89 93 95 94 89 87 86 83 82 78 75 64
140 140 136 134 133 133 130 130 131 126 125 125 123 120 124 123 123 122 122 119 116 107 99 97 96 100 101 99 98 101 98 101 99 98 96 96 95 94 92 91 88 85 88 86 83 78 67
144 146 141 139 138 137 135 134 132 132 131 129 129 127 125 118 114 122 120 123 120 112 109 102 103 105 106 106 107 103 101 103 102 102 102 97 96 97 92 92 90 85 79 81 84 80 77
146 148 146 147 144 144 141 139 138 137 137 132 132 130 126 129 126 124 120 121 120 120 114 111 115 114 111 112 111 110 109 109 107 107 107 101 101 94 88 89 87 84 76 87 88 83 84
141 144 146 150 150 149 146 144 143 142 143 140 140 137 135 134 128 126 125 123 119 120 116 114 116 118 118 116 117 116 116 113 111 107 111 110 103 97 92 90 87 87 86 91 92 88 87
143 143 147 148 152 151 149 146 147 148 147 144 144 144 139 141 141 142 138 128 117 111 116 115 117 121 121 123 121 121 119 115 111 107 109 107 99 99 95 92 95 91 88 96 95 92 91
145 147 148 148 150 152 153 153 151 151 151 150 149 148 145 148 146 145 142 140 137 134 134 125 113 116 118 116 115 114 115 112 109 105 106 106 100 98 103 97 99 98 97 97 98 96 100
137 142 144 147 147 149 150 151 152 154 155 155 152 149 147 150 148 147 145 146 144 137 131 129 126 125 123 120 117 119 118 112 109 108 104 100 97 95 100 101 97 98 97 101 102 104 105
126 133 138 141 145 147 148 148 148 151 153 155 158 159 156 157 154 151 146 142 146 146 143 142 142 140 138 136 137 138 138 137 131 130 123 117 113 107 110 109 102 104 108 108 109 112 112
111 117 123 124 129 135 135 137 140 145 147 148 150 151 152 154 153 154 154 154 154 152 150 147 145 143 140 141 140 139 137 135 134 133 129 122 122 115 116 114 117 115 114 115 115 114 118
97 102 107 110 115 122 124 125 127 129 132 140 146 147 148 148 150 149 150 148 150 151 149 149 150 149 148 150 147 145 142 143 144 140 134 132 130 131 129 127 127 123 119 122 123 123 125
85 90 95 99 104 107 110 112 114 119 121 123 126 131 131 135 136 138 141 140 139 140 143 143 139 142 140 136 143 142 144 144 143 140 138 130 126 129 130 130 129 122 121 125 126 128 135
72 76 80 85 89 94 98 102 106 108 110 112 114 116 118 118 120 122 129 133 131 128 132 127 127 126 121 124 124 124 130 127 128 128 124 117 116 118 119 122 119 113 115 112 117 125 126
62 66 69 72 75 80 84 89 93 95 98 100 102 104 106 106 109 111 116 119 120 120 117 115 110 109 109 109 112 111 111 110 104 104 103 104 107 107 105 105 110 103 104 108 114 117 118
53 57 60 63 66 69 72 76 80 84 88 90 92 95 97 99 101 105 108 109 110 110 109 111 104 103 100 101 103 103 100 99 102 95 96 98 100 103 106 107 105 96 102 106 111 105 109
46 48 51 54 57 60 63 67 69 72 75 79 83 85 87 87 89 94 95 97 98 99 98 98 107 97 97 99 99 95 93 92 88 83 84 90 92 95 98 99 97 89 95 99 100 100 98
39 42 45 47 49 52 54 57 60 64 66 69 72 74 75 76 80 83 86 86 89 90 90 91 96 98 93 95 94 91 89 84 76 71 72 79 85 86 88 90 88 88 89 89 91 90 91
30 33 37 39 42 45 48 50 52 53 54 56 60 63 63 66 72 75 76 79 82 84 79 81 85 87 91 82 82 87 85 75 68 64 63 65 69 74 72 76 79 81 81 81 79 78 78

GFSGBSN_250_spd_159.txt.gz
Wind_Speed
96 95 88 90 82 80 83 83 80 81 78 82 76 82 78 79 79 82 80 78 79 79 71 65 65 66 68 71 71 66 68 71 73 72 72 74 71 63 62 60 62 66 68 68 67 61 52
91 94 95 94 91 90 86 86 87 85 82 81 77 80 79 83 83 85 80 80 83 80 77 72 65 66 63 66 64 61 62 66 70 75 71 69 65 62 62 63 63 66 63 59 60 60 60
101 101 98 98 97 93 91 93 88 90 90 85 84 82 85 85 81 83 79 78 79 75 80 76 74 67 69 77 70 68 65 68 69 66 62 64 65 64 65 62 63 70 67 63 60 52 49
100 100 101 96 97 94 94 91 92 92 93 91 89 90 84 76 82 86 88 87 81 80 77 77 71 67 60 78 74 70 63 63 67 67 70 69 69 67 70 67 66 68 66 64 57 52 53
101 101 104 101 100 104 97 95 94 87 95 94 93 95 90 88 81 83 85 82 82 83 80 76 78 77 70 73 74 76 77 78 74 75 76 74 71 69 64 62 65 61 61 56 57 54 53
105 98 100 104 103 100 97 92 93 91 92 93 96 97 97 95 93 88 88 90 88 82 83 83 82 80 82 75 73 72 74 80 83 84 75 69 69 65 67 65 61 66 64 58 59 64 56
106 105 103 103 106 105 101 102 97 94 94 95 98 99 101 101 102 103 93 91 92 91 87 89 87 87 81 84 84 82 79 80 79 80 79 76 74 73 68 65 64 66 63 60 61 64 63
107 111 109 105 111 111 107 106 102 99 99 98 96 97 97 98 97 99 97 95 95 91 89 92 93 88 89 83 82 83 81 77 79 80 80 75 76 74 72 68 66 64 64 67 67 68 66
118 113 120 112 112 114 112 109 112 108 106 101 100 98 94 97 98 97 98 98 97 93 89 88 91 90 90 89 86 83 81 80 81 80 82 77 74 76 77 75 72 70 73 74 73 73 74
121 124 121 120 116 118 117 111 116 117 115 107 105 101 102 97 96 100 100 100 101 101 98 94 97 94 94 90 85 89 82 80 83 83 84 81 80 78 76 80 79 75 77 77 74 74 74
133 129 127 126 124 118 123 116 114 118 120 118 115 113 106 113 106 104 108 108 104 105 107 101 98 99 98 96 92 91 92 88 83 81 84 80 81 83 80 81 86 83 82 81 82 82 79
138 137 135 132 128 126 124 123 120 123 123 123 120 118 117 118 116 110 110 112 115 114 107 105 100 102 101 102 98 96 96 94 91 88 84 81 82 79 85 86 84 87 83 84 87 88 82
138 139 140 137 131 133 132 130 126 127 129 128 124 122 122 123 125 124 120 121 117 122 115 108 109 105 109 105 102 100 101 100 105 94 90 88 90 87 86 89 89 87 84 87 88 86 79
141 147 140 141 138 138 135 134 133 131 131 131 128 129 129 122 119 113 121 125 126 119 121 120 111 111 110 110 108 111 110 105 104 100 100 94 94 96 91 93 94 90 92 92 94 90 93
146 147 144 146 144 141 140 139 136 135 133 133 134 134 128 126 124 126 125 128 118 121 125 124 119 122 120 115 114 114 111 110 107 103 102 102 102 99 99 101 99 98 99 99 102 102 100
147 151 148 150 143 144 146 142 139 138 137 136 138 135 136 137 132 130 128 125 121 120 116 120 120 122 121 121 120 121 119 114 111 107 107 106 104 104 102 103 105 106 108 109 110 103 101
150 151 150 151 144 143 146 147 148 144 143 146 142 143 140 141 142 142 138 134 127 121 107 118 122 121 115 117 115 113 109 117 110 111 111 111 107 109 105 105 111 110 110 109 109 103 99
142 145 150 151 146 145 142 144 147 149 151 149 146 149 147 146 146 145 139 138 137 138 133 128 122 114 110 108 114 111 108 104 100 105 107 106 102 99 97 99 101 107 103 100 102 98 97
129 134 138 144 149 148 144 146 146 149 146 151 154 156 153 150 148 147 147 144 144 142 141 140 138 138 130 122 122 116 124 119 115 107 108 107 109 116 115 114 109 104 102 96 95 101 101
119 122 126 131 140 144 144 145 146 150 147 152 148 155 154 155 153 151 150 148 148 147 148 145 143 143 141 143 142 140 137 130 130 126 121 120 118 112 113 111 106 108 108 111 113 112 107
110 113 115 119 122 129 133 138 143 146 149 149 151 149 150 150 148 153 155 154 150 148 148 144 143 144 145 145 143 145 140 140 136 137 132 128 123 118 122 124 125 127 128 129 125 121 120
97 101 105 109 115 119 124 125 130 136 138 144 149 147 149 149 148 147 150 147 151 154 157 153 148 146 148 145 142 138 137 137 136 133 128 129 126 127 130 132 135 134 129 128 125 127 131
84 87 91 95 99 104 108 114 121 126 128 127 133 138 145 146 145 149 148 148 150 148 148 151 149 148 150 156 153 149 146 144 147 147 144 143 136 136 139 143 143 142 135 145 141 141 144
72 75 78 83 87 91 96 100 107 113 116 120 123 124 129 130 131 134 138 136 140 140 141 140 139 141 141 139 140 141 142 143 144 141 140 137 141 139 137 139 139 134 130 133 134 131 133
61 65 68 72 75 80 84 88 93 98 102 106 108 111 114 115 119 122 126 128 129 129 127 124 126 125 126 124 125 131 127 125 121 126 123 123 125 124 126 127 122 119 108 116 114 112 112
52 56 59 62 65 69 73 77 82 86 90 94 97 100 102 105 109 111 113 114 114 114 117 116 117 116 115 115 111 112 110 112 112 106 105 107 110 109 110 105 104 100 105 110 107 101 105
45 48 51 54 58 61 64 67 71 76 80 83 87 91 93 94 96 99 102 103 105 108 107 107 110 111 107 105 103 98 98 99 100 97 95 99 99 99 98 97 98 90 102 102 97 102 101
40 43 46 48 50 52 55 58 61 64 68 71 75 79 81 84 88 90 93 94 95 97 97 98 100 102 103 103 102 95 90 92 93 91 91 91 92 90 90 92 89 86 93 94 94 95 99
31 35 38 41 44 47 49 51 54 56 59 62 66 69 71 73 77 80 83 84 87 88 86 88 88 89 92 91 94 99 96 91 87 84 84 80 81 82 79 79 81 80 82 87 89 95 90

GFSGBSN_250_spd_162.txt.gz
Wind_Speed
86 86 87 86 85 84 84 86 79 80 82 82 86 85 81 81 78 75 76 72 71 71 66 72 72 71 75 67 65 56 58 58 55 55 54 56 58 61 66 64 64 63 55 60 66 58 57
87 87 87 88 85 83 85 85 82 84 87 86 88 83 79 77 78 75 75 75 77 74 74 70 70 73 72 70 73 71 69 64 60 60 63 64 58 59 61 63 64 60 65 62 59 57 56
92 83 85 92 92 91 91 87 83 82 85 80 79 79 76 78 77 79 82 78 79 76 73 75 75 76 72 78 78 74 76 74 65 64 61 68 69 73 62 62 59 64 65 62 58 53 51
99 96 91 87 87 89 88 86 86 87 94 95 93 94 88 79 83 85 82 80 80 77 75 73 75 76 66 78 72 75 70 68 66 61 59 63 62 61 63 66 70 67 58 59 60 64 61
104 98 95 96 97 93 96 96 95 93 96 94 97 99 92 83 85 85 84 87 84 77 71 68 68 71 70 78 77 75 76 77 72 70 67 71 68 65 68 69 70 71 66 69 72 68 60
107 105 102 102 99 99 99 98 97 97 99 100 97 97 96 93 90 88 90 92 90 88 88 84 79 73 74 74 75 78 81 78 75 74 74 75 69 71 72 76 73 71 70 74 70 68 63
103 109 107 106 106 103 105 103 102 103 100 100 99 99 99 96 89 87 90 95 92 92 90 93 90 84 80 80 80 79 78 79 79 74 78 76 70 73 78 78 73 74 74 70 69 70 71
107 103 107 106 109 108 104 101 104 106 106 106 104 98 99 99 91 90 86 91 93 90 91 93 94 93 91 95 81 81 82 82 84 84 85 80 77 80 76 72 72 72 72 71 72 71 68
112 111 105 112 111 114 108 103 105 105 108 108 109 103 98 97 98 94 94 93 95 94 95 93 94 95 97 91 86 84 89 83 82 81 83 81 80 80 77 76 70 71 73 70 71 73 70
119 116 115 113 115 110 110 113 108 113 109 106 112 109 103 97 101 100 97 95 98 96 93 87 90 85 92 93 89 90 92 86 86 85 89 83 83 83 83 75 79 78 75 70 69 74 73
130 127 125 120 122 119 114 112 113 112 120 115 112 113 112 112 102 99 104 101 102 104 110 89 84 88 90 90 91 89 93 94 93 96 93 87 88 85 85 84 85 79 81 78 74 72 72
134 134 134 134 130 126 123 120 121 119 117 122 119 119 117 117 115 110 108 111 107 109 105 106 91 89 94 99 96 95 100 99 97 96 94 92 93 94 87 84 85 86 89 87 83 83 74
133 137 136 136 137 133 132 130 127 125 124 121 123 125 120 119 118 119 118 119 122 118 112 107 104 99 101 100 105 105 102 103 104 104 103 102 98 98 93 89 89 90 88 91 92 90 78
136 136 136 138 138 140 139 136 134 131 130 128 127 125 124 124 124 124 123 127 125 119 122 122 115 109 108 108 108 108 110 108 108 104 110 109 108 101 98 93 91 94 95 93 95 94 90
140 139 142 139 142 143 141 140 138 138 134 132 130 132 130 129 128 124 124 124 121 116 124 126 124 120 121 118 115 113 110 111 111 109 107 107 104 103 102 99 97 98 100 98 99 95 97
142 141 141 144 152 144 143 145 144 142 140 136 137 138 135 134 134 131 128 125 122 120 120 117 120 118 119 122 122 119 117 116 116 117 115 112 111 112 109 102 102 103 103 102 105 100 99
149 148 145 149 153 146 141 144 148 147 144 144 144 142 140 140 139 136 134 127 124 124 128 126 122 123 122 120 120 119 117 117 116 117 117 118 114 110 115 111 109 108 107 108 102 104 99
148 150 150 152 150 155 146 146 157 144 147 146 147 145 147 146 146 143 136 132 133 134 135 131 123 118 120 123 121 114 112 115 112 107 102 112 111 106 103 102 103 92 90 91 97 96 97
133 139 146 153 153 154 151 154 154 147 145 149 144 146 148 150 149 148 143 144 144 140 138 137 138 136 136 132 124 114 108 112 113 113 104 106 111 109 103 105 113 107 105 84 106 105 104
122 128 133 140 145 150 155 160 156 153 155 149 148 145 150 152 150 150 153 147 150 148 147 144 140 139 139 140 140 137 137 138 132 131 126 124 120 113 110 118 119 117 121 117 111 116 112
103 111 119 127 131 137 144 148 152 153 155 159 152 151 151 150 149 151 155 153 149 150 153 153 151 149 146 147 145 146 143 143 141 140 137 138 138 135 133 134 131 132 130 127 124 123 118
85 94 105 111 118 122 127 130 134 139 140 147 148 144 150 155 151 154 156 152 150 149 150 153 153 153 153 153 151 150 152 152 148 144 142 142 142 141 137 132 132 131 129 124 124 123 127
73 82 91 98 104 109 113 117 120 123 126 131 138 135 139 140 143 146 143 149 154 149 148 148 150 149 149 152 152 153 154 154 153 151 148 144 141 138 136 128 129 130 121 127 124 123 127
67 72 78 84 89 94 98 101 107 111 113 118 121 125 130 129 132 137 139 139 142 143 145 142 139 140 138 144 146 148 148 145 147 146 141 136 142 141 139 144 146 141 145 141 139 141 142
59 63 68 72 75 78 82 87 92 95 98 103 107 114 119 119 123 126 127 131 132 129 127 126 125 125 127 127 129 128 132 132 133 135 135 134 134 138 137 135 135 136 127 129 132 134 133
50 55 59 63 65 68 71 74 77 82 87 91 96 100 105 108 112 114 118 123 125 126 124 124 127 122 120 120 122 118 116 116 116 115 115 116 114 118 120 118 115 108 110 114 122 122 110
45 48 52 54 56 59 61 64 68 72 75 79 84 89 91 95 100 104 107 110 111 114 115 115 117 116 114 113 113 110 109 107 106 105 102 105 104 105 103 103 102 92 96 107 110 101 105
38 42 46 49 50 52 54 57 60 63 67 70 73 78 81 84 90 92 97 98 100 101 101 102 103 105 107 107 105 105 96 101 102 93 94 94 97 95 94 95 88 84 95 98 95 100 92
30 33 37 41 45 48 50 51 53 55 58 62 66 70 73 75 80 82 85 87 88 90 89 90 90 93 95 97 99 100 98 96 91 83 82 84 85 87 83 80 82 81 88 88 92 87 90